www.cux-wetter.de
Wetterdaten: Donnerstag, 24.09.2015
Datum Zeit Temp. A. Feuchte A. Luftdruck Regen Wind Richtung Richtung Sonnenschein Solar Taupunkt Windchill Windben
24.09.2015 00:00 10,6 C 97 % 1010,9 hPa 0,0 l/m 0,1 km/h (0 Bft) SO 134 0 min 0 W/m 10,1 C 10,6 C 1,6 km/h (1 Bft)
24.09.2015 00:03 10,5 C 97 % 1011,0 hPa 0,0 l/m 0,0 km/h (0 Bft) SO 134 0 min 0 W/m 10,0 C 10,5 C 0,0 km/h (0 Bft)
24.09.2015 00:06 10,6 C 98 % 1011,0 hPa 0,0 l/m 0,6 km/h (0 Bft) SO 134 0 min 0 W/m 10,3 C 10,6 C 1,6 km/h (1 Bft)
24.09.2015 00:09 10,7 C 98 % 1011,0 hPa 0,0 l/m 0,6 km/h (0 Bft) SO 134 0 min 0 W/m 10,4 C 10,7 C 1,6 km/h (1 Bft)
24.09.2015 00:12 10,7 C 98 % 1011,0 hPa 0,0 l/m 0,1 km/h (0 Bft) SO 134 0 min 0 W/m 10,4 C 10,7 C 1,6 km/h (1 Bft)
24.09.2015 00:15 10,6 C 98 % 1011,0 hPa 0,0 l/m 0,1 km/h (0 Bft) SO 134 0 min 0 W/m 10,3 C 10,6 C 1,6 km/h (1 Bft)
24.09.2015 00:18 10,6 C 98 % 1011,1 hPa 0,0 l/m 1,6 km/h (1 Bft) SO 134 0 min 0 W/m 10,3 C 10,6 C 3,2 km/h (1 Bft)
24.09.2015 00:21 10,6 C 98 % 1011,1 hPa 0,0 l/m 2,4 km/h (1 Bft) SO 141 0 min 0 W/m 10,3 C 10,6 C 4,8 km/h (1 Bft)
24.09.2015 00:24 10,7 C 98 % 1011,2 hPa 0,0 l/m 2,5 km/h (1 Bft) S-SO 150 0 min 0 W/m 10,4 C 10,7 C 4,8 km/h (1 Bft)
24.09.2015 00:27 10,7 C 98 % 1011,2 hPa 0,0 l/m 2,0 km/h (1 Bft) S-SO 150 0 min 0 W/m 10,4 C 10,7 C 4,8 km/h (1 Bft)
24.09.2015 00:30 10,7 C 98 % 1011,1 hPa 0,0 l/m 2,1 km/h (1 Bft) S-SO 150 0 min 0 W/m 10,4 C 10,7 C 3,2 km/h (1 Bft)
24.09.2015 00:33 10,7 C 98 % 1011,1 hPa 0,0 l/m 1,9 km/h (1 Bft) S-SO 150 0 min 0 W/m 10,4 C 10,7 C 3,2 km/h (1 Bft)
24.09.2015 00:36 10,7 C 98 % 1011,1 hPa 0,0 l/m 3,0 km/h (1 Bft) S-SO 151 0 min 0 W/m 10,4 C 10,7 C 4,8 km/h (1 Bft)
24.09.2015 00:39 10,7 C 98 % 1011,2 hPa 0,0 l/m 2,6 km/h (1 Bft) S-SO 155 0 min 0 W/m 10,4 C 10,7 C 4,8 km/h (1 Bft)
24.09.2015 00:42 10,7 C 98 % 1011,2 hPa 0,0 l/m 2,0 km/h (1 Bft) S-SO 155 0 min 0 W/m 10,4 C 10,7 C 3,2 km/h (1 Bft)
24.09.2015 00:45 10,7 C 98 % 1011,2 hPa 0,0 l/m 2,1 km/h (1 Bft) S-SO 157 0 min 0 W/m 10,4 C 10,7 C 3,2 km/h (1 Bft)
24.09.2015 00:48 10,7 C 98 % 1011,2 hPa 0,0 l/m 2,4 km/h (1 Bft) S 171 0 min 0 W/m 10,4 C 10,7 C 6,4 km/h (2 Bft)
24.09.2015 00:51 10,8 C 98 % 1011,2 hPa 0,0 l/m 2,0 km/h (1 Bft) S 171 0 min 0 W/m 10,5 C 10,8 C 6,4 km/h (2 Bft)
24.09.2015 00:54 10,9 C 98 % 1011,2 hPa 0,0 l/m 1,9 km/h (1 Bft) S 171 0 min 0 W/m 10,6 C 10,9 C 3,2 km/h (1 Bft)
24.09.2015 00:57 10,9 C 98 % 1011,2 hPa 0,0 l/m 2,6 km/h (1 Bft) S 172 0 min 0 W/m 10,6 C 10,9 C 6,4 km/h (2 Bft)
24.09.2015 01:00 10,9 C 98 % 1011,2 hPa 0,0 l/m 2,1 km/h (1 Bft) S 172 0 min 0 W/m 10,6 C 10,9 C 3,2 km/h (1 Bft)
24.09.2015 01:03 11,0 C 98 % 1011,2 hPa 0,0 l/m 1,9 km/h (1 Bft) S 172 0 min 0 W/m 10,7 C 11,0 C 3,2 km/h (1 Bft)
24.09.2015 01:06 10,9 C 98 % 1011,2 hPa 0,0 l/m 1,7 km/h (1 Bft) S 172 0 min 0 W/m 10,6 C 10,9 C 4,8 km/h (1 Bft)
24.09.2015 01:09 11,0 C 98 % 1011,2 hPa 0,0 l/m 0,9 km/h (0 Bft) S 172 0 min 0 W/m 10,7 C 11,0 C 3,2 km/h (1 Bft)
24.09.2015 01:12 10,9 C 98 % 1011,2 hPa 0,0 l/m 2,3 km/h (1 Bft) S 172 0 min 0 W/m 10,6 C 10,9 C 3,2 km/h (1 Bft)
24.09.2015 01:15 10,9 C 98 % 1011,2 hPa 0,0 l/m 1,8 km/h (1 Bft) S 172 0 min 0 W/m 10,6 C 10,9 C 3,2 km/h (1 Bft)
24.09.2015 01:18 10,9 C 98 % 1011,1 hPa 0,0 l/m 1,3 km/h (1 Bft) S 172 0 min 0 W/m 10,6 C 10,9 C 3,2 km/h (1 Bft)
24.09.2015 01:21 10,9 C 98 % 1011,2 hPa 0,0 l/m 1,3 km/h (1 Bft) S 172 0 min 0 W/m 10,6 C 10,9 C 3,2 km/h (1 Bft)
24.09.2015 01:24 10,9 C 98 % 1011,2 hPa 0,0 l/m 1,3 km/h (1 Bft) S 173 0 min 0 W/m 10,6 C 10,9 C 3,2 km/h (1 Bft)
24.09.2015 01:27 10,9 C 98 % 1011,2 hPa 0,0 l/m 1,7 km/h (1 Bft) S 173 0 min 0 W/m 10,6 C 10,9 C 3,2 km/h (1 Bft)
24.09.2015 01:30 10,9 C 98 % 1011,2 hPa 0,0 l/m 1,4 km/h (1 Bft) S 173 0 min 0 W/m 10,6 C 10,9 C 3,2 km/h (1 Bft)
24.09.2015 01:33 10,9 C 98 % 1011,1 hPa 0,0 l/m 1,9 km/h (1 Bft) S 173 0 min 0 W/m 10,6 C 10,9 C 4,8 km/h (1 Bft)
24.09.2015 01:36 10,9 C 98 % 1011,1 hPa 0,0 l/m 1,5 km/h (1 Bft) S 173 0 min 0 W/m 10,6 C 10,9 C 3,2 km/h (1 Bft)
24.09.2015 01:39 10,9 C 98 % 1011,2 hPa 0,0 l/m 2,1 km/h (1 Bft) S 173 0 min 0 W/m 10,6 C 10,9 C 4,8 km/h (1 Bft)
24.09.2015 01:42 10,9 C 98 % 1011,2 hPa 0,0 l/m 1,8 km/h (1 Bft) S 173 0 min 0 W/m 10,6 C 10,9 C 3,2 km/h (1 Bft)
24.09.2015 01:45 10,9 C 98 % 1011,2 hPa 0,0 l/m 3,6 km/h (1 Bft) S-SO 150 0 min 0 W/m 10,6 C 10,9 C 6,4 km/h (2 Bft)
24.09.2015 01:48 10,9 C 98 % 1011,2 hPa 0,0 l/m 3,3 km/h (1 Bft) S-SO 161 0 min 0 W/m 10,6 C 10,9 C 8,0 km/h (2 Bft)
24.09.2015 01:51 10,9 C 98 % 1011,2 hPa 0,0 l/m 3,1 km/h (1 Bft) S-SO 152 0 min 0 W/m 10,6 C 10,9 C 6,4 km/h (2 Bft)
24.09.2015 01:54 10,8 C 98 % 1011,2 hPa 0,0 l/m 2,5 km/h (1 Bft) SO 146 0 min 0 W/m 10,5 C 10,8 C 4,8 km/h (1 Bft)
24.09.2015 01:57 10,8 C 98 % 1011,2 hPa 0,0 l/m 3,0 km/h (1 Bft) O-SO 122 0 min 0 W/m 10,5 C 10,8 C 4,8 km/h (1 Bft)
24.09.2015 02:00 10,8 C 98 % 1011,2 hPa 0,0 l/m 3,3 km/h (1 Bft) SO 126 0 min 0 W/m 10,5 C 10,8 C 8,0 km/h (2 Bft)
24.09.2015 02:03 10,8 C 98 % 1011,2 hPa 0,0 l/m 2,4 km/h (1 Bft) SO 141 0 min 0 W/m 10,5 C 10,8 C 4,8 km/h (1 Bft)
24.09.2015 02:06 10,8 C 98 % 1011,2 hPa 0,0 l/m 4,0 km/h (1 Bft) S-SO 164 0 min 0 W/m 10,5 C 10,8 C 8,0 km/h (2 Bft)
24.09.2015 02:09 10,8 C 98 % 1011,2 hPa 0,0 l/m 3,4 km/h (1 Bft) S-SO 157 0 min 0 W/m 10,5 C 10,8 C 8,0 km/h (2 Bft)
24.09.2015 02:12 10,8 C 98 % 1011,2 hPa 0,0 l/m 3,4 km/h (1 Bft) S-SO 168 0 min 0 W/m 10,5 C 10,8 C 8,0 km/h (2 Bft)
24.09.2015 02:15 10,8 C 98 % 1011,2 hPa 0,0 l/m 4,0 km/h (1 Bft) S 169 0 min 0 W/m 10,5 C 10,8 C 8,0 km/h (2 Bft)
24.09.2015 02:18 10,8 C 98 % 1011,1 hPa 0,0 l/m 2,8 km/h (1 Bft) S 186 0 min 0 W/m 10,5 C 10,8 C 6,4 km/h (2 Bft)
24.09.2015 02:21 10,8 C 98 % 1011,2 hPa 0,0 l/m 3,2 km/h (1 Bft) S 171 0 min 0 W/m 10,5 C 10,8 C 6,4 km/h (2 Bft)
24.09.2015 02:24 10,8 C 98 % 1011,2 hPa 0,0 l/m 3,4 km/h (1 Bft) S 180 0 min 0 W/m 10,5 C 10,8 C 6,4 km/h (2 Bft)
24.09.2015 02:27 10,8 C 98 % 1011,2 hPa 0,0 l/m 3,3 km/h (1 Bft) S-SO 156 0 min 0 W/m 10,5 C 10,8 C 6,4 km/h (2 Bft)
24.09.2015 02:30 10,8 C 98 % 1011,2 hPa 0,0 l/m 3,7 km/h (1 Bft) S-SO 157 0 min 0 W/m 10,5 C 10,8 C 6,4 km/h (2 Bft)
24.09.2015 02:33 10,8 C 98 % 1011,3 hPa 0,0 l/m 3,6 km/h (1 Bft) S-SO 163 0 min 0 W/m 10,5 C 10,8 C 8,0 km/h (2 Bft)
24.09.2015 02:36 10,7 C 98 % 1011,3 hPa 0,0 l/m 4,2 km/h (1 Bft) S 189 0 min 0 W/m 10,4 C 10,7 C 8,0 km/h (2 Bft)
24.09.2015 02:39 10,6 C 98 % 1011,2 hPa 0,0 l/m 3,4 km/h (1 Bft) S 173 0 min 0 W/m 10,3 C 10,6 C 8,0 km/h (2 Bft)
24.09.2015 02:42 10,5 C 98 % 1011,2 hPa 0,0 l/m 3,4 km/h (1 Bft) S-SO 165 0 min 0 W/m 10,2 C 10,5 C 6,4 km/h (2 Bft)
24.09.2015 02:45 10,4 C 98 % 1011,2 hPa 0,0 l/m 2,8 km/h (1 Bft) S-SO 165 0 min 0 W/m 10,1 C 10,4 C 6,4 km/h (2 Bft)
24.09.2015 02:48 10,3 C 98 % 1011,3 hPa 0,0 l/m 2,8 km/h (1 Bft) S 171 0 min 0 W/m 10,0 C 10,3 C 4,8 km/h (1 Bft)
24.09.2015 02:51 10,3 C 98 % 1011,2 hPa 0,0 l/m 2,3 km/h (1 Bft) S 173 0 min 0 W/m 10,0 C 10,3 C 4,8 km/h (1 Bft)
24.09.2015 02:54 10,3 C 98 % 1011,3 hPa 0,0 l/m 3,3 km/h (1 Bft) S 172 0 min 0 W/m 10,0 C 10,3 C 6,4 km/h (2 Bft)
24.09.2015 02:57 10,2 C 98 % 1011,3 hPa 0,0 l/m 3,3 km/h (1 Bft) S 186 0 min 0 W/m 9,9 C 10,2 C 6,4 km/h (2 Bft)
24.09.2015 03:00 10,2 C 98 % 1011,2 hPa 0,0 l/m 2,1 km/h (1 Bft) S 185 0 min 0 W/m 9,9 C 10,2 C 3,2 km/h (1 Bft)
24.09.2015 03:03 10,2 C 98 % 1011,2 hPa 0,0 l/m 2,3 km/h (1 Bft) O-SO 121 0 min 0 W/m 9,9 C 10,2 C 4,8 km/h (1 Bft)
24.09.2015 03:06 10,2 C 98 % 1011,2 hPa 0,0 l/m 2,7 km/h (1 Bft) S-SO 161 0 min 0 W/m 9,9 C 10,2 C 6,4 km/h (2 Bft)
24.09.2015 03:09 10,2 C 98 % 1011,3 hPa 0,0 l/m 2,5 km/h (1 Bft) S-SO 161 0 min 0 W/m 9,9 C 10,2 C 3,2 km/h (1 Bft)
24.09.2015 03:12 10,2 C 98 % 1011,2 hPa 0,0 l/m 2,3 km/h (1 Bft) S-SO 161 0 min 0 W/m 9,9 C 10,2 C 3,2 km/h (1 Bft)
24.09.2015 03:15 10,2 C 98 % 1011,3 hPa 0,0 l/m 2,3 km/h (1 Bft) S 184 0 min 0 W/m 9,9 C 10,2 C 3,2 km/h (1 Bft)
24.09.2015 03:18 10,2 C 98 % 1011,3 hPa 0,0 l/m 2,1 km/h (1 Bft) S 185 0 min 0 W/m 9,9 C 10,2 C 3,2 km/h (1 Bft)
24.09.2015 03:21 10,2 C 98 % 1011,3 hPa 0,0 l/m 2,0 km/h (1 Bft) S 180 0 min 0 W/m 9,9 C 10,2 C 3,2 km/h (1 Bft)
24.09.2015 03:24 10,2 C 98 % 1011,3 hPa 0,0 l/m 2,1 km/h (1 Bft) S 188 0 min 0 W/m 9,9 C 10,2 C 3,2 km/h (1 Bft)
24.09.2015 03:27 10,3 C 98 % 1011,3 hPa 0,0 l/m 2,4 km/h (1 Bft) S 188 0 min 0 W/m 10,0 C 10,3 C 4,8 km/h (1 Bft)
24.09.2015 03:30 10,3 C 98 % 1011,3 hPa 0,0 l/m 1,7 km/h (1 Bft) S 188 0 min 0 W/m 10,0 C 10,3 C 3,2 km/h (1 Bft)
24.09.2015 03:33 10,4 C 98 % 1011,3 hPa 0,0 l/m 2,4 km/h (1 Bft) S 188 0 min 0 W/m 10,1 C 10,4 C 4,8 km/h (1 Bft)
24.09.2015 03:36 10,4 C 98 % 1011,3 hPa 0,0 l/m 2,2 km/h (1 Bft) S 184 0 min 0 W/m 10,1 C 10,4 C 4,8 km/h (1 Bft)
24.09.2015 03:39 10,4 C 98 % 1011,4 hPa 0,0 l/m 2,2 km/h (1 Bft) S 172 0 min 0 W/m 10,1 C 10,4 C 4,8 km/h (1 Bft)
24.09.2015 03:42 10,4 C 98 % 1011,3 hPa 0,0 l/m 2,2 km/h (1 Bft) S 170 0 min 0 W/m 10,1 C 10,4 C 3,2 km/h (1 Bft)
24.09.2015 03:45 10,6 C 98 % 1011,3 hPa 0,0 l/m 1,7 km/h (1 Bft) S 171 0 min 0 W/m 10,3 C 10,6 C 3,2 km/h (1 Bft)
24.09.2015 03:48 10,7 C 98 % 1011,3 hPa 0,0 l/m 3,0 km/h (1 Bft) S 174 0 min 0 W/m 10,4 C 10,7 C 6,4 km/h (2 Bft)
24.09.2015 03:51 10,8 C 98 % 1011,4 hPa 0,0 l/m 2,9 km/h (1 Bft) S 178 0 min 0 W/m 10,5 C 10,8 C 4,8 km/h (1 Bft)
24.09.2015 03:54 10,8 C 98 % 1011,4 hPa 0,0 l/m 2,1 km/h (1 Bft) S 176 0 min 0 W/m 10,5 C 10,8 C 4,8 km/h (1 Bft)
24.09.2015 03:57 10,9 C 98 % 1011,4 hPa 0,0 l/m 3,2 km/h (1 Bft) S 170 0 min 0 W/m 10,6 C 10,9 C 6,4 km/h (2 Bft)
24.09.2015 04:00 10,9 C 98 % 1011,4 hPa 0,0 l/m 3,4 km/h (1 Bft) S-SO 154 0 min 0 W/m 10,6 C 10,9 C 6,4 km/h (2 Bft)
24.09.2015 04:03 10,9 C 98 % 1011,4 hPa 0,0 l/m 3,2 km/h (1 Bft) S-SW 194 0 min 0 W/m 10,6 C 10,9 C 6,4 km/h (2 Bft)
24.09.2015 04:06 11,0 C 98 % 1011,4 hPa 0,0 l/m 3,7 km/h (1 Bft) S-SW 209 0 min 0 W/m 10,7 C 11,0 C 9,7 km/h (2 Bft)
24.09.2015 04:09 11,1 C 98 % 1011,4 hPa 0,0 l/m 4,2 km/h (1 Bft) S-SW 196 0 min 0 W/m 10,8 C 11,1 C 6,4 km/h (2 Bft)
24.09.2015 04:12 11,2 C 98 % 1011,3 hPa 0,0 l/m 5,4 km/h (2 Bft) S-SW 202 0 min 0 W/m 10,9 C 11,2 C 9,7 km/h (2 Bft)
24.09.2015 04:15 11,3 C 99 % 1011,4 hPa 0,0 l/m 7,0 km/h (2 Bft) W-SW 257 0 min 0 W/m 11,1 C 10,9 C 12,9 km/h (3 Bft)
24.09.2015 04:18 11,4 C 99 % 1011,4 hPa 0,0 l/m 7,5 km/h (2 Bft) SW 234 0 min 0 W/m 11,2 C 10,7 C 12,9 km/h (3 Bft)
24.09.2015 04:21 11,5 C 98 % 1011,4 hPa 0,0 l/m 7,7 km/h (2 Bft) S-SW 196 0 min 0 W/m 11,2 C 10,6 C 12,9 km/h (3 Bft)
24.09.2015 04:24 11,5 C 98 % 1011,4 hPa 0,0 l/m 6,9 km/h (2 Bft) S 191 0 min 0 W/m 11,2 C 11,2 C 11,3 km/h (2 Bft)
24.09.2015 04:27 11,6 C 98 % 1011,4 hPa 0,0 l/m 7,5 km/h (2 Bft) S-SW 204 0 min 0 W/m 11,3 C 10,9 C 16,1 km/h (3 Bft)
24.09.2015 04:30 11,6 C 98 % 1011,4 hPa 0,0 l/m 7,4 km/h (2 Bft) SW 217 0 min 0 W/m 11,3 C 10,9 C 12,9 km/h (3 Bft)
24.09.2015 04:33 11,6 C 98 % 1011,4 hPa 0,0 l/m 7,8 km/h (2 Bft) S-SW 196 0 min 0 W/m 11,3 C 10,7 C 14,5 km/h (3 Bft)
24.09.2015 04:36 11,6 C 98 % 1011,5 hPa 0,0 l/m 7,8 km/h (2 Bft) S-SW 201 0 min 0 W/m 11,3 C 10,7 C 16,1 km/h (3 Bft)
24.09.2015 04:39 11,6 C 98 % 1011,5 hPa 0,0 l/m 6,5 km/h (2 Bft) S-SW 202 0 min 0 W/m 11,3 C 11,6 C 9,7 km/h (2 Bft)
24.09.2015 04:42 11,5 C 98 % 1011,6 hPa 0,0 l/m 8,3 km/h (2 Bft) SW 219 0 min 0 W/m 11,2 C 10,2 C 16,1 km/h (3 Bft)
24.09.2015 04:45 11,6 C 98 % 1011,5 hPa 0,0 l/m 7,3 km/h (2 Bft) SW 226 0 min 0 W/m 11,3 C 11,0 C 12,9 km/h (3 Bft)
24.09.2015 04:48 11,5 C 98 % 1011,6 hPa 0,0 l/m 7,5 km/h (2 Bft) S-SW 199 0 min 0 W/m 11,2 C 10,8 C 12,9 km/h (3 Bft)
24.09.2015 04:51 11,5 C 98 % 1011,5 hPa 0,0 l/m 7,8 km/h (2 Bft) S-SW 207 0 min 0 W/m 11,2 C 10,6 C 16,1 km/h (3 Bft)
24.09.2015 04:54 11,5 C 98 % 1011,6 hPa 0,0 l/m 7,7 km/h (2 Bft) S-SW 198 0 min 0 W/m 11,2 C 10,6 C 14,5 km/h (3 Bft)
24.09.2015 04:57 11,6 C 98 % 1011,6 hPa 0,0 l/m 9,1 km/h (2 Bft) S 191 0 min 0 W/m 11,3 C 9,9 C 16,1 km/h (3 Bft)
24.09.2015 05:00 11,6 C 98 % 1011,6 hPa 0,0 l/m 9,2 km/h (2 Bft) SW 234 0 min 0 W/m 11,3 C 9,8 C 14,5 km/h (3 Bft)
24.09.2015 05:03 11,6 C 98 % 1011,5 hPa 0,0 l/m 8,6 km/h (2 Bft) SW 219 0 min 0 W/m 11,3 C 10,2 C 14,5 km/h (3 Bft)
24.09.2015 05:06 11,6 C 98 % 1011,6 hPa 0,0 l/m 8,7 km/h (2 Bft) S-SW 201 0 min 0 W/m 11,3 C 10,1 C 19,3 km/h (3 Bft)
24.09.2015 05:09 11,6 C 98 % 1011,6 hPa 0,0 l/m 7,4 km/h (2 Bft) S-SW 198 0 min 0 W/m 11,3 C 10,9 C 16,1 km/h (3 Bft)
24.09.2015 05:12 11,5 C 98 % 1011,6 hPa 0,0 l/m 5,3 km/h (1 Bft) S-SW 200 0 min 0 W/m 11,2 C 11,5 C 9,7 km/h (2 Bft)
24.09.2015 05:15 11,5 C 98 % 1011,7 hPa 0,0 l/m 8,8 km/h (2 Bft) S 182 0 min 0 W/m 11,2 C 9,9 C 16,1 km/h (3 Bft)
24.09.2015 05:18 11,5 C 98 % 1011,7 hPa 0,0 l/m 9,7 km/h (2 Bft) S-SW 213 0 min 0 W/m 11,2 C 9,4 C 17,7 km/h (3 Bft)
24.09.2015 05:21 11,5 C 98 % 1011,8 hPa 0,0 l/m 7,7 km/h (2 Bft) S 178 0 min 0 W/m 11,2 C 10,6 C 14,5 km/h (3 Bft)
24.09.2015 05:24 11,4 C 98 % 1011,8 hPa 0,0 l/m 7,0 km/h (2 Bft) S-SW 206 0 min 0 W/m 11,1 C 11,0 C 12,9 km/h (3 Bft)
24.09.2015 05:27 11,4 C 98 % 1011,8 hPa 0,0 l/m 6,5 km/h (2 Bft) SW 228 0 min 0 W/m 11,1 C 11,4 C 11,3 km/h (2 Bft)
24.09.2015 05:30 11,4 C 98 % 1011,9 hPa 0,0 l/m 6,6 km/h (2 Bft) S-SW 193 0 min 0 W/m 11,1 C 11,3 C 14,5 km/h (3 Bft)
24.09.2015 05:33 11,5 C 98 % 1011,9 hPa 0,0 l/m 5,3 km/h (1 Bft) S 190 0 min 0 W/m 11,2 C 11,5 C 8,0 km/h (2 Bft)
24.09.2015 05:36 11,5 C 98 % 1011,9 hPa 0,0 l/m 6,2 km/h (2 Bft) SW 227 0 min 0 W/m 11,2 C 11,5 C 9,7 km/h (2 Bft)
24.09.2015 05:39 11,6 C 98 % 1011,9 hPa 0,0 l/m 6,2 km/h (2 Bft) S 183 0 min 0 W/m 11,3 C 11,6 C 16,1 km/h (3 Bft)
24.09.2015 05:42 11,6 C 98 % 1011,9 hPa 0,0 l/m 6,9 km/h (2 Bft) S-SW 213 0 min 0 W/m 11,3 C 11,3 C 17,7 km/h (3 Bft)
24.09.2015 05:45 11,6 C 98 % 1011,9 hPa 0,0 l/m 6,3 km/h (2 Bft) S 184 0 min 0 W/m 11,3 C 11,6 C 12,9 km/h (3 Bft)
24.09.2015 05:48 11,5 C 98 % 1011,9 hPa 0,0 l/m 8,3 km/h (2 Bft) SW 233 0 min 0 W/m 11,2 C 10,2 C 16,1 km/h (3 Bft)
24.09.2015 05:51 11,5 C 98 % 1011,9 hPa 0,0 l/m 7,4 km/h (2 Bft) SW 217 0 min 0 W/m 11,2 C 10,8 C 17,7 km/h (3 Bft)
24.09.2015 05:54 11,5 C 98 % 1012,0 hPa 0,0 l/m 8,2 km/h (2 Bft) S-SW 213 0 min 0 W/m 11,2 C 10,3 C 20,9 km/h (4 Bft)
24.09.2015 05:57 11,6 C 98 % 1012,0 hPa 0,0 l/m 9,1 km/h (2 Bft) SW 231 0 min 0 W/m 11,3 C 9,9 C 19,3 km/h (3 Bft)
24.09.2015 06:00 11,5 C 98 % 1012,0 hPa 0,0 l/m 9,8 km/h (2 Bft) S 169 0 min 0 W/m 11,2 C 9,4 C 17,7 km/h (3 Bft)
24.09.2015 06:03 11,5 C 98 % 1012,0 hPa 0,0 l/m 8,0 km/h (2 Bft) S-SW 194 0 min 0 W/m 11,2 C 10,4 C 16,1 km/h (3 Bft)
24.09.2015 06:06 11,5 C 98 % 1011,9 hPa 0,0 l/m 7,4 km/h (2 Bft) S-SW 196 0 min 0 W/m 11,2 C 10,8 C 14,5 km/h (3 Bft)
24.09.2015 06:09 11,4 C 98 % 1011,9 hPa 0,0 l/m 8,3 km/h (2 Bft) SW 219 0 min 0 W/m 11,1 C 10,1 C 16,1 km/h (3 Bft)
24.09.2015 06:12 11,4 C 98 % 1011,8 hPa 0,0 l/m 6,4 km/h (2 Bft) S 181 0 min 0 W/m 11,1 C 11,4 C 12,9 km/h (3 Bft)
24.09.2015 06:15 11,4 C 98 % 1011,9 hPa 0,0 l/m 7,7 km/h (2 Bft) O-SO 109 0 min 0 W/m 11,1 C 10,5 C 14,5 km/h (3 Bft)
24.09.2015 06:18 11,4 C 98 % 1011,9 hPa 0,0 l/m 8,4 km/h (2 Bft) S 169 0 min 0 W/m 11,1 C 10,1 C 14,5 km/h (3 Bft)
24.09.2015 06:21 11,4 C 98 % 1011,9 hPa 0,0 l/m 7,2 km/h (2 Bft) SW 215 0 min 0 W/m 11,1 C 10,9 C 14,5 km/h (3 Bft)
24.09.2015 06:24 11,4 C 98 % 1011,9 hPa 0,0 l/m 7,8 km/h (2 Bft) SW 235 0 min 0 W/m 11,1 C 10,5 C 16,1 km/h (3 Bft)
24.09.2015 06:27 11,4 C 98 % 1012,0 hPa 0,0 l/m 8,3 km/h (2 Bft) O 94 0 min 0 W/m 11,1 C 10,1 C 17,7 km/h (3 Bft)
24.09.2015 06:30 11,5 C 98 % 1012,0 hPa 0,0 l/m 8,9 km/h (2 Bft) S 181 0 min 0 W/m 11,2 C 9,9 C 17,7 km/h (3 Bft)
24.09.2015 06:33 11,4 C 98 % 1012,0 hPa 0,0 l/m 7,6 km/h (2 Bft) W-SW 253 0 min 0 W/m 11,1 C 10,6 C 12,9 km/h (3 Bft)
24.09.2015 06:36 11,4 C 98 % 1011,9 hPa 0,0 l/m 8,0 km/h (2 Bft) S-SW 199 0 min 0 W/m 11,1 C 10,3 C 16,1 km/h (3 Bft)
24.09.2015 06:39 11,4 C 98 % 1011,9 hPa 0,0 l/m 5,1 km/h (1 Bft) S 173 0 min 0 W/m 11,1 C 11,4 C 14,5 km/h (3 Bft)
24.09.2015 06:42 11,4 C 98 % 1011,9 hPa 0,0 l/m 8,1 km/h (2 Bft) S-SO 158 0 min 0 W/m 11,1 C 10,3 C 14,5 km/h (3 Bft)
24.09.2015 06:45 11,4 C 98 % 1011,9 hPa 0,0 l/m 5,4 km/h (2 Bft) SW 232 0 min 0 W/m 11,1 C 11,4 C 12,9 km/h (3 Bft)
24.09.2015 06:48 11,4 C 98 % 1012,0 hPa 0,0 l/m 6,2 km/h (2 Bft) S 182 0 min 0 W/m 11,1 C 11,4 C 11,3 km/h (2 Bft)
24.09.2015 06:51 11,4 C 98 % 1011,9 hPa 0,0 l/m 7,1 km/h (2 Bft) S 173 0 min 0 W/m 11,1 C 10,9 C 11,3 km/h (2 Bft)
24.09.2015 06:54 11,5 C 98 % 1012,0 hPa 0,0 l/m 8,1 km/h (2 Bft) S 182 0 min 0 W/m 11,2 C 10,4 C 16,1 km/h (3 Bft)
24.09.2015 06:57 11,5 C 98 % 1012,0 hPa 0,0 l/m 6,9 km/h (2 Bft) S-SO 158 0 min 0 W/m 11,2 C 11,2 C 11,3 km/h (2 Bft)
24.09.2015 07:00 11,5 C 98 % 1011,9 hPa 0,0 l/m 8,7 km/h (2 Bft) S 187 0 min 0 W/m 11,2 C 10,0 C 17,7 km/h (3 Bft)
24.09.2015 07:03 11,5 C 98 % 1012,0 hPa 0,0 l/m 8,3 km/h (2 Bft) S-SW 194 0 min 0 W/m 11,2 C 10,2 C 16,1 km/h (3 Bft)
24.09.2015 07:06 11,5 C 98 % 1012,0 hPa 0,0 l/m 7,5 km/h (2 Bft) S-SO 167 0 min 5 W/m 11,2 C 10,8 C 12,9 km/h (3 Bft)
24.09.2015 07:09 11,5 C 98 % 1012,0 hPa 0,0 l/m 6,2 km/h (2 Bft) S 180 0 min 7 W/m 11,2 C 11,5 C 11,3 km/h (2 Bft)
24.09.2015 07:12 11,5 C 98 % 1012,0 hPa 0,0 l/m 7,7 km/h (2 Bft) S-SO 167 0 min 11 W/m 11,2 C 10,6 C 14,5 km/h (3 Bft)
24.09.2015 07:15 11,5 C 98 % 1012,1 hPa 0,0 l/m 8,5 km/h (2 Bft) S-SO 163 0 min 11 W/m 11,2 C 10,1 C 17,7 km/h (3 Bft)
24.09.2015 07:18 11,5 C 98 % 1012,1 hPa 0,0 l/m 8,1 km/h (2 Bft) S-SO 163 0 min 14 W/m 11,2 C 10,4 C 12,9 km/h (3 Bft)
24.09.2015 07:21 11,6 C 98 % 1012,1 hPa 0,0 l/m 7,9 km/h (2 Bft) S 184 0 min 16 W/m 11,3 C 10,6 C 14,5 km/h (3 Bft)
24.09.2015 07:24 11,6 C 98 % 1012,2 hPa 0,0 l/m 7,7 km/h (2 Bft) S 173 0 min 16 W/m 11,3 C 10,7 C 12,9 km/h (3 Bft)
24.09.2015 07:27 11,6 C 98 % 1012,2 hPa 0,0 l/m 7,7 km/h (2 Bft) S 182 0 min 16 W/m 11,3 C 10,7 C 14,5 km/h (3 Bft)
24.09.2015 07:30 11,6 C 98 % 1012,1 hPa 0,0 l/m 7,7 km/h (2 Bft) S 173 0 min 14 W/m 11,3 C 10,7 C 14,5 km/h (3 Bft)
24.09.2015 07:33 11,6 C 97 % 1012,1 hPa 0,0 l/m 8,1 km/h (2 Bft) S-SW 196 0 min 14 W/m 11,1 C 10,5 C 14,5 km/h (3 Bft)
24.09.2015 07:36 11,6 C 97 % 1012,1 hPa 0,0 l/m 8,6 km/h (2 Bft) SO 144 3 min 21 W/m 11,1 C 10,2 C 14,5 km/h (3 Bft)
24.09.2015 07:39 11,5 C 97 % 1012,1 hPa 0,0 l/m 7,1 km/h (2 Bft) S-SW 192 0 min 21 W/m 11,0 C 11,0 C 14,5 km/h (3 Bft)
24.09.2015 07:42 11,6 C 97 % 1012,1 hPa 0,0 l/m 7,1 km/h (2 Bft) S-SO 166 0 min 23 W/m 11,1 C 11,1 C 14,5 km/h (3 Bft)
24.09.2015 07:45 11,6 C 98 % 1012,0 hPa 0,0 l/m 7,0 km/h (2 Bft) S-SW 193 0 min 18 W/m 11,3 C 11,2 C 11,3 km/h (2 Bft)
24.09.2015 07:48 11,6 C 98 % 1012,0 hPa 0,0 l/m 6,2 km/h (2 Bft) S 174 0 min 16 W/m 11,3 C 11,6 C 16,1 km/h (3 Bft)
24.09.2015 07:51 11,6 C 98 % 1011,9 hPa 0,0 l/m 6,6 km/h (2 Bft) S-SO 153 0 min 21 W/m 11,3 C 11,5 C 12,9 km/h (3 Bft)
24.09.2015 07:54 11,6 C 98 % 1011,9 hPa 0,0 l/m 8,2 km/h (2 Bft) S 173 0 min 25 W/m 11,3 C 10,4 C 14,5 km/h (3 Bft)
24.09.2015 07:57 11,6 C 98 % 1011,9 hPa 0,0 l/m 7,7 km/h (2 Bft) S 188 0 min 26 W/m 11,3 C 10,7 C 14,5 km/h (3 Bft)
24.09.2015 08:00 11,6 C 98 % 1011,9 hPa 0,0 l/m 7,7 km/h (2 Bft) S-SO 157 0 min 30 W/m 11,3 C 10,7 C 14,5 km/h (3 Bft)
24.09.2015 08:03 11,6 C 98 % 1012,0 hPa 0,0 l/m 7,1 km/h (2 Bft) SO 139 0 min 33 W/m 11,3 C 11,1 C 12,9 km/h (3 Bft)
24.09.2015 08:06 11,6 C 97 % 1011,9 hPa 0,0 l/m 7,3 km/h (2 Bft) S 177 0 min 40 W/m 11,1 C 11,0 C 14,5 km/h (3 Bft)
24.09.2015 08:09 11,7 C 97 % 1012,0 hPa 0,0 l/m 8,1 km/h (2 Bft) S 171 0 min 44 W/m 11,2 C 10,6 C 16,1 km/h (3 Bft)
24.09.2015 08:12 11,7 C 97 % 1012,0 hPa 0,0 l/m 7,0 km/h (2 Bft) S 186 0 min 46 W/m 11,2 C 11,3 C 12,9 km/h (3 Bft)
24.09.2015 08:15 11,7 C 97 % 1012,0 hPa 0,0 l/m 6,7 km/h (2 Bft) S 190 0 min 44 W/m 11,2 C 11,5 C 11,3 km/h (2 Bft)
24.09.2015 08:18 11,7 C 97 % 1012,0 hPa 0,0 l/m 7,3 km/h (2 Bft) S-SW 192 0 min 42 W/m 11,2 C 11,1 C 12,9 km/h (3 Bft)
24.09.2015 08:21 11,7 C 97 % 1012,0 hPa 0,0 l/m 8,3 km/h (2 Bft) S-SO 161 0 min 40 W/m 11,2 C 10,5 C 17,7 km/h (3 Bft)
24.09.2015 08:24 11,8 C 97 % 1012,1 hPa 0,0 l/m 6,6 km/h (2 Bft) SO 133 0 min 37 W/m 11,3 C 11,7 C 14,5 km/h (3 Bft)
24.09.2015 08:27 11,8 C 97 % 1012,1 hPa 0,0 l/m 6,8 km/h (2 Bft) S-SO 167 0 min 33 W/m 11,3 C 11,5 C 14,5 km/h (3 Bft)
24.09.2015 08:30 11,8 C 97 % 1012,1 hPa 0,0 l/m 6,7 km/h (2 Bft) O-SO 113 0 min 32 W/m 11,3 C 11,6 C 11,3 km/h (2 Bft)
24.09.2015 08:33 11,8 C 97 % 1012,1 hPa 0,0 l/m 6,2 km/h (2 Bft) S-SO 155 0 min 30 W/m 11,3 C 11,8 C 9,7 km/h (2 Bft)
24.09.2015 08:36 11,8 C 97 % 1012,2 hPa 0,0 l/m 5,8 km/h (2 Bft) S 173 0 min 28 W/m 11,3 C 11,8 C 12,9 km/h (3 Bft)
24.09.2015 08:39 11,8 C 97 % 1012,2 hPa 0,0 l/m 6,8 km/h (2 Bft) S-SO 159 0 min 26 W/m 11,3 C 11,5 C 11,3 km/h (2 Bft)
24.09.2015 08:42 11,8 C 97 % 1012,3 hPa 0,0 l/m 6,7 km/h (2 Bft) S-SO 168 0 min 26 W/m 11,3 C 11,6 C 14,5 km/h (3 Bft)
24.09.2015 08:45 11,8 C 97 % 1012,3 hPa 0,0 l/m 7,5 km/h (2 Bft) S 178 0 min 25 W/m 11,3 C 11,1 C 14,5 km/h (3 Bft)
24.09.2015 08:48 11,8 C 97 % 1012,3 hPa 0,0 l/m 5,8 km/h (2 Bft) S 178 0 min 25 W/m 11,3 C 11,8 C 14,5 km/h (3 Bft)
24.09.2015 08:51 11,8 C 97 % 1012,4 hPa 0,0 l/m 7,2 km/h (2 Bft) S 169 0 min 26 W/m 11,3 C 11,3 C 14,5 km/h (3 Bft)
24.09.2015 08:54 11,8 C 97 % 1012,4 hPa 0,0 l/m 5,9 km/h (2 Bft) S 173 0 min 33 W/m 11,3 C 11,8 C 14,5 km/h (3 Bft)
24.09.2015 08:57 11,9 C 97 % 1012,4 hPa 0,0 l/m 8,7 km/h (2 Bft) S 184 0 min 44 W/m 11,4 C 10,4 C 14,5 km/h (3 Bft)
24.09.2015 09:00 11,9 C 97 % 1012,4 hPa 0,0 l/m 6,4 km/h (2 Bft) S 188 0 min 54 W/m 11,4 C 11,9 C 12,9 km/h (3 Bft)
24.09.2015 09:03 12,1 C 97 % 1012,4 hPa 0,0 l/m 7,9 km/h (2 Bft) S 187 0 min 60 W/m 11,6 C 11,1 C 19,3 km/h (3 Bft)
24.09.2015 09:06 12,1 C 97 % 1012,4 hPa 0,0 l/m 9,2 km/h (2 Bft) S 185 0 min 74 W/m 11,6 C 10,3 C 17,7 km/h (3 Bft)
24.09.2015 09:09 12,2 C 97 % 1012,5 hPa 0,0 l/m 10,1 km/h (2 Bft) O-SO 116 0 min 76 W/m 11,7 C 10,0 C 16,1 km/h (3 Bft)
24.09.2015 09:12 12,3 C 97 % 1012,3 hPa 0,0 l/m 9,8 km/h (2 Bft) S-SW 195 0 min 116 W/m 11,8 C 10,2 C 19,3 km/h (3 Bft)
24.09.2015 09:15 12,4 C 97 % 1012,4 hPa 0,0 l/m 9,6 km/h (2 Bft) S-SW 204 0 min 93 W/m 11,9 C 10,5 C 19,3 km/h (3 Bft)
24.09.2015 09:18 12,5 C 97 % 1012,4 hPa 0,0 l/m 7,2 km/h (2 Bft) S 173 0 min 104 W/m 12,0 C 12,0 C 12,9 km/h (3 Bft)
24.09.2015 09:21 12,6 C 96 % 1012,4 hPa 0,0 l/m 9,1 km/h (2 Bft) S-SO 165 0 min 65 W/m 12,0 C 10,9 C 20,9 km/h (4 Bft)
24.09.2015 09:24 12,6 C 96 % 1012,5 hPa 0,0 l/m 11,1 km/h (2 Bft) W-SW 257 0 min 69 W/m 12,0 C 9,9 C 17,7 km/h (3 Bft)
24.09.2015 09:27 12,5 C 96 % 1012,5 hPa 0,0 l/m 12,9 km/h (3 Bft) S-SW 199 0 min 95 W/m 11,9 C 9,0 C 25,7 km/h (4 Bft)
24.09.2015 09:30 12,5 C 95 % 1012,6 hPa 0,0 l/m 12,6 km/h (3 Bft) S 191 0 min 132 W/m 11,7 C 9,1 C 25,7 km/h (4 Bft)
24.09.2015 09:33 12,6 C 95 % 1012,5 hPa 0,0 l/m 11,5 km/h (2 Bft) SW 215 0 min 93 W/m 11,8 C 9,7 C 19,3 km/h (3 Bft)
24.09.2015 09:36 12,6 C 95 % 1012,5 hPa 0,0 l/m 12,5 km/h (2 Bft) W 269 0 min 114 W/m 11,8 C 9,3 C 17,7 km/h (3 Bft)
24.09.2015 09:39 12,6 C 95 % 1012,5 hPa 0,0 l/m 12,1 km/h (2 Bft) S 173 0 min 130 W/m 11,8 C 9,5 C 20,9 km/h (4 Bft)
24.09.2015 09:42 12,7 C 95 % 1012,6 hPa 0,0 l/m 10,6 km/h (2 Bft) S-SW 210 0 min 128 W/m 11,9 C 10,3 C 19,3 km/h (3 Bft)
24.09.2015 09:45 12,8 C 95 % 1012,6 hPa 0,0 l/m 8,7 km/h (2 Bft) S-SO 160 0 min 125 W/m 12,0 C 11,4 C 14,5 km/h (3 Bft)
24.09.2015 09:48 12,8 C 95 % 1012,7 hPa 0,0 l/m 9,9 km/h (2 Bft) W-SW 249 0 min 105 W/m 12,0 C 10,7 C 19,3 km/h (3 Bft)
24.09.2015 09:51 12,8 C 95 % 1012,7 hPa 0,0 l/m 10,0 km/h (2 Bft) S-SW 207 0 min 107 W/m 12,0 C 10,7 C 19,3 km/h (3 Bft)
24.09.2015 09:54 12,8 C 95 % 1012,7 hPa 0,0 l/m 9,5 km/h (2 Bft) S 186 0 min 148 W/m 12,0 C 10,9 C 16,1 km/h (3 Bft)
24.09.2015 09:57 12,8 C 95 % 1012,7 hPa 0,0 l/m 10,0 km/h (2 Bft) S 169 3 min 199 W/m 12,0 C 10,7 C 16,1 km/h (3 Bft)
24.09.2015 10:00 12,9 C 95 % 1012,7 hPa 0,0 l/m 9,4 km/h (2 Bft) SW 218 3 min 241 W/m 12,1 C 11,1 C 16,1 km/h (3 Bft)
24.09.2015 10:03 13,1 C 94 % 1012,7 hPa 0,0 l/m 11,4 km/h (2 Bft) S-SO 167 3 min 209 W/m 12,2 C 10,4 C 17,7 km/h (3 Bft)
24.09.2015 10:06 13,2 C 94 % 1012,6 hPa 0,0 l/m 10,5 km/h (2 Bft) S-SW 192 0 min 165 W/m 12,3 C 10,9 C 16,1 km/h (3 Bft)
24.09.2015 10:09 13,2 C 94 % 1012,6 hPa 0,0 l/m 9,4 km/h (2 Bft) S-SW 194 0 min 181 W/m 12,3 C 11,4 C 16,1 km/h (3 Bft)
24.09.2015 10:12 13,2 C 93 % 1012,7 hPa 0,0 l/m 9,4 km/h (2 Bft) O 101 0 min 162 W/m 12,1 C 11,4 C 19,3 km/h (3 Bft)
24.09.2015 10:15 13,1 C 93 % 1012,7 hPa 0,0 l/m 12,3 km/h (2 Bft) S-SW 207 0 min 158 W/m 12,0 C 10,0 C 24,1 km/h (4 Bft)
24.09.2015 10:18 13,1 C 93 % 1012,7 hPa 0,0 l/m 11,6 km/h (2 Bft) W-SW 248 0 min 153 W/m 12,0 C 10,3 C 20,9 km/h (4 Bft)
24.09.2015 10:21 13,2 C 94 % 1012,6 hPa 0,0 l/m 8,9 km/h (2 Bft) S-SO 165 0 min 179 W/m 12,3 C 11,7 C 14,5 km/h (3 Bft)
24.09.2015 10:24 13,2 C 94 % 1012,7 hPa 0,0 l/m 7,4 km/h (2 Bft) S-SO 159 0 min 169 W/m 12,3 C 12,6 C 12,9 km/h (3 Bft)
24.09.2015 10:27 13,2 C 93 % 1012,7 hPa 0,0 l/m 11,9 km/h (2 Bft) S-SO 165 0 min 193 W/m 12,1 C 10,2 C 20,9 km/h (4 Bft)
24.09.2015 10:30 13,2 C 93 % 1012,6 hPa 0,0 l/m 10,4 km/h (2 Bft) SO 138 0 min 174 W/m 12,1 C 10,9 C 22,5 km/h (4 Bft)
24.09.2015 10:33 13,2 C 92 % 1012,6 hPa 0,0 l/m 8,7 km/h (2 Bft) S-SW 202 0 min 156 W/m 11,9 C 11,8 C 19,3 km/h (3 Bft)
24.09.2015 10:36 13,2 C 93 % 1012,6 hPa 0,0 l/m 9,6 km/h (2 Bft) S-SO 167 0 min 171 W/m 12,1 C 11,3 C 20,9 km/h (4 Bft)
24.09.2015 10:39 13,2 C 93 % 1012,7 hPa 0,0 l/m 10,2 km/h (2 Bft) S-SO 159 0 min 174 W/m 12,1 C 11,0 C 19,3 km/h (3 Bft)
24.09.2015 10:42 13,3 C 93 % 1012,6 hPa 0,0 l/m 9,6 km/h (2 Bft) S 171 0 min 167 W/m 12,2 C 11,4 C 17,7 km/h (3 Bft)
24.09.2015 10:45 13,3 C 93 % 1012,7 hPa 0,0 l/m 9,1 km/h (2 Bft) S 184 0 min 186 W/m 12,2 C 11,7 C 17,7 km/h (3 Bft)
24.09.2015 10:48 13,3 C 92 % 1012,7 hPa 0,0 l/m 11,7 km/h (2 Bft) S 169 0 min 230 W/m 12,0 C 10,4 C 20,9 km/h (4 Bft)
24.09.2015 10:51 13,3 C 92 % 1012,7 hPa 0,0 l/m 10,0 km/h (2 Bft) S-SW 193 0 min 207 W/m 12,0 C 11,2 C 20,9 km/h (4 Bft)
24.09.2015 10:54 13,3 C 92 % 1012,8 hPa 0,0 l/m 12,6 km/h (3 Bft) S 185 0 min 223 W/m 12,0 C 10,1 C 22,5 km/h (4 Bft)
24.09.2015 10:57 13,3 C 92 % 1012,8 hPa 0,0 l/m 12,5 km/h (2 Bft) S 176 0 min 209 W/m 12,0 C 10,1 C 20,9 km/h (4 Bft)
24.09.2015 11:00 13,3 C 92 % 1012,8 hPa 0,0 l/m 10,1 km/h (2 Bft) SW 219 0 min 199 W/m 12,0 C 11,2 C 22,5 km/h (4 Bft)
24.09.2015 11:03 13,4 C 92 % 1012,8 hPa 0,0 l/m 9,5 km/h (2 Bft) S-SW 199 3 min 269 W/m 12,1 C 11,6 C 19,3 km/h (3 Bft)
24.09.2015 11:06 13,5 C 92 % 1012,9 hPa 0,0 l/m 10,1 km/h (2 Bft) S-SO 159 0 min 223 W/m 12,2 C 11,4 C 20,9 km/h (4 Bft)
24.09.2015 11:09 13,6 C 91 % 1012,9 hPa 0,0 l/m 11,1 km/h (2 Bft) S-SW 197 0 min 218 W/m 12,2 C 11,1 C 17,7 km/h (3 Bft)
24.09.2015 11:12 13,6 C 91 % 1012,9 hPa 0,0 l/m 12,9 km/h (3 Bft) S-SO 159 0 min 232 W/m 12,2 C 10,3 C 27,4 km/h (5 Bft)
24.09.2015 11:15 13,6 C 91 % 1012,9 hPa 0,0 l/m 10,1 km/h (2 Bft) S-SO 167 0 min 172 W/m 12,2 C 11,5 C 17,7 km/h (3 Bft)
24.09.2015 11:18 13,6 C 91 % 1012,9 hPa 0,0 l/m 9,1 km/h (2 Bft) S-SW 206 0 min 188 W/m 12,2 C 12,0 C 16,1 km/h (3 Bft)
24.09.2015 11:21 13,6 C 91 % 1012,8 hPa 0,0 l/m 11,6 km/h (2 Bft) S 191 0 min 199 W/m 12,2 C 10,8 C 22,5 km/h (4 Bft)
24.09.2015 11:24 13,6 C 91 % 1012,8 hPa 0,0 l/m 9,5 km/h (2 Bft) S-SW 200 0 min 232 W/m 12,2 C 11,8 C 19,3 km/h (3 Bft)
24.09.2015 11:27 13,6 C 91 % 1012,8 hPa 0,0 l/m 10,5 km/h (2 Bft) S 189 0 min 241 W/m 12,2 C 11,3 C 22,5 km/h (4 Bft)
24.09.2015 11:30 13,7 C 91 % 1012,9 hPa 0,0 l/m 12,0 km/h (2 Bft) S 184 0 min 229 W/m 12,3 C 10,8 C 24,1 km/h (4 Bft)
24.09.2015 11:33 13,6 C 90 % 1013,0 hPa 0,0 l/m 10,4 km/h (2 Bft) SW 232 0 min 167 W/m 12,0 C 11,4 C 17,7 km/h (3 Bft)
24.09.2015 11:36 13,6 C 91 % 1013,0 hPa 0,0 l/m 9,7 km/h (2 Bft) S 172 0 min 158 W/m 12,2 C 11,7 C 16,1 km/h (3 Bft)
24.09.2015 11:39 13,7 C 91 % 1012,9 hPa 0,0 l/m 11,4 km/h (2 Bft) S-SW 209 0 min 118 W/m 12,3 C 11,0 C 19,3 km/h (3 Bft)
24.09.2015 11:42 13,6 C 90 % 1012,9 hPa 0,0 l/m 10,7 km/h (2 Bft) S-SO 168 0 min 132 W/m 12,0 C 11,2 C 19,3 km/h (3 Bft)
24.09.2015 11:45 13,6 C 90 % 1012,9 hPa 0,0 l/m 10,1 km/h (2 Bft) S 169 0 min 128 W/m 12,0 C 11,5 C 22,5 km/h (4 Bft)
24.09.2015 11:48 13,7 C 91 % 1012,9 hPa 0,0 l/m 8,4 km/h (2 Bft) SW 236 0 min 135 W/m 12,3 C 12,5 C 14,5 km/h (3 Bft)
24.09.2015 11:51 13,8 C 91 % 1012,9 hPa 0,0 l/m 9,8 km/h (2 Bft) S 173 0 min 197 W/m 12,4 C 11,9 C 17,7 km/h (3 Bft)
24.09.2015 11:54 13,8 C 90 % 1012,8 hPa 0,0 l/m 11,1 km/h (2 Bft) S 170 0 min 162 W/m 12,2 C 11,3 C 17,7 km/h (3 Bft)
24.09.2015 11:57 13,8 C 90 % 1012,8 hPa 0,0 l/m 8,5 km/h (2 Bft) S 178 0 min 239 W/m 12,2 C 12,6 C 20,9 km/h (4 Bft)
24.09.2015 12:00 13,8 C 89 % 1012,8 hPa 0,0 l/m 12,5 km/h (2 Bft) SW 217 0 min 213 W/m 12,0 C 10,7 C 24,1 km/h (4 Bft)
24.09.2015 12:03 13,9 C 90 % 1012,8 hPa 0,0 l/m 9,5 km/h (2 Bft) S-SO 167 0 min 257 W/m 12,3 C 12,1 C 17,7 km/h (3 Bft)
24.09.2015 12:06 14,2 C 90 % 1012,8 hPa 0,0 l/m 8,3 km/h (2 Bft) S 182 0 min 278 W/m 12,6 C 13,1 C 14,5 km/h (3 Bft)
24.09.2015 12:09 14,4 C 89 % 1012,9 hPa 0,0 l/m 11,9 km/h (2 Bft) S-SW 195 0 min 236 W/m 12,6 C 11,6 C 24,1 km/h (4 Bft)
24.09.2015 12:12 14,3 C 89 % 1012,8 hPa 0,0 l/m 10,9 km/h (2 Bft) SW 230 0 min 206 W/m 12,5 C 11,9 C 19,3 km/h (3 Bft)
24.09.2015 12:15 14,3 C 88 % 1012,9 hPa 0,0 l/m 15,7 km/h (3 Bft) SW 215 0 min 192 W/m 12,3 C 10,1 C 29,0 km/h (5 Bft)
24.09.2015 12:18 14,2 C 89 % 1012,9 hPa 0,0 l/m 10,2 km/h (2 Bft) S-SW 200 0 min 181 W/m 12,4 C 12,1 C 19,3 km/h (3 Bft)
24.09.2015 12:21 14,2 C 89 % 1013,0 hPa 0,0 l/m 12,7 km/h (3 Bft) W-SW 240 0 min 171 W/m 12,4 C 11,1 C 20,9 km/h (4 Bft)
24.09.2015 12:24 14,2 C 89 % 1013,0 hPa 0,0 l/m 13,0 km/h (3 Bft) S 186 0 min 183 W/m 12,4 C 11,0 C 24,1 km/h (4 Bft)
24.09.2015 12:27 14,2 C 89 % 1013,0 hPa 0,0 l/m 11,2 km/h (2 Bft) SW 217 0 min 190 W/m 12,4 C 11,7 C 24,1 km/h (4 Bft)
24.09.2015 12:30 14,2 C 90 % 1013,0 hPa 0,0 l/m 11,7 km/h (2 Bft) W-SW 242 0 min 209 W/m 12,6 C 11,5 C 19,3 km/h (3 Bft)
24.09.2015 12:33 14,6 C 89 % 1013,0 hPa 0,0 l/m 8,5 km/h (2 Bft) S 178 0 min 255 W/m 12,8 C 13,4 C 19,3 km/h (3 Bft)
24.09.2015 12:36 14,6 C 88 % 1013,0 hPa 0,0 l/m 12,3 km/h (2 Bft) W-SW 244 0 min 288 W/m 12,6 C 11,7 C 22,5 km/h (4 Bft)
24.09.2015 12:39 14,6 C 88 % 1012,9 hPa 0,0 l/m 12,9 km/h (3 Bft) SW 234 3 min 341 W/m 12,6 C 11,5 C 20,9 km/h (4 Bft)
24.09.2015 12:42 14,6 C 87 % 1013,0 hPa 0,0 l/m 12,4 km/h (2 Bft) SW 225 0 min 214 W/m 12,5 C 11,7 C 24,1 km/h (4 Bft)
24.09.2015 12:45 14,6 C 87 % 1013,0 hPa 0,0 l/m 12,6 km/h (3 Bft) S-SW 196 0 min 200 W/m 12,5 C 11,6 C 20,9 km/h (4 Bft)
24.09.2015 12:48 14,6 C 87 % 1012,9 hPa 0,0 l/m 10,4 km/h (2 Bft) W-SW 257 0 min 265 W/m 12,5 C 12,5 C 19,3 km/h (3 Bft)
24.09.2015 12:51 14,6 C 87 % 1012,9 hPa 0,0 l/m 12,9 km/h (3 Bft) S-SW 205 3 min 360 W/m 12,5 C 11,5 C 25,7 km/h (4 Bft)
24.09.2015 12:54 14,7 C 88 % 1012,9 hPa 0,0 l/m 10,7 km/h (2 Bft) SW 235 0 min 223 W/m 12,7 C 12,5 C 17,7 km/h (3 Bft)
24.09.2015 12:57 14,6 C 86 % 1012,8 hPa 0,0 l/m 14,5 km/h (3 Bft) SW 217 0 min 190 W/m 12,3 C 10,9 C 20,9 km/h (4 Bft)
24.09.2015 13:00 14,8 C 88 % 1012,9 hPa 0,0 l/m 10,9 km/h (2 Bft) SW 234 3 min 373 W/m 12,8 C 12,5 C 20,9 km/h (4 Bft)
24.09.2015 13:03 15,0 C 87 % 1012,8 hPa 0,0 l/m 15,0 km/h (3 Bft) O-SO 115 3 min 327 W/m 12,9 C 11,2 C 24,1 km/h (4 Bft)
24.09.2015 13:06 15,2 C 86 % 1012,8 hPa 0,0 l/m 11,8 km/h (2 Bft) S-SO 147 0 min 287 W/m 12,9 C 12,6 C 20,9 km/h (4 Bft)
24.09.2015 13:09 15,4 C 86 % 1012,9 hPa 0,0 l/m 14,9 km/h (3 Bft) W-SW 252 0 min 239 W/m 13,1 C 11,7 C 29,0 km/h (5 Bft)
24.09.2015 13:12 15,3 C 86 % 1012,8 hPa 0,0 l/m 13,8 km/h (3 Bft) S-SW 202 0 min 246 W/m 13,0 C 12,0 C 25,7 km/h (4 Bft)
24.09.2015 13:15 15,4 C 86 % 1012,8 hPa 0,0 l/m 13,5 km/h (3 Bft) S 190 3 min 413 W/m 13,1 C 12,2 C 24,1 km/h (4 Bft)
24.09.2015 13:18 15,4 C 85 % 1012,8 hPa 0,0 l/m 12,7 km/h (3 Bft) W 273 3 min 413 W/m 12,9 C 12,5 C 20,9 km/h (4 Bft)
24.09.2015 13:21 15,5 C 84 % 1012,9 hPa 0,0 l/m 14,5 km/h (3 Bft) S-SW 210 3 min 434 W/m 12,8 C 12,0 C 30,6 km/h (5 Bft)
24.09.2015 13:24 15,6 C 86 % 1012,7 hPa 0,0 l/m 12,0 km/h (2 Bft) S-SO 155 3 min 450 W/m 13,3 C 13,0 C 22,5 km/h (4 Bft)
24.09.2015 13:27 16,1 C 86 % 1012,7 hPa 0,0 l/m 10,0 km/h (2 Bft) S 182 3 min 561 W/m 13,8 C 14,3 C 17,7 km/h (3 Bft)
24.09.2015 13:30 16,2 C 83 % 1012,7 hPa 0,0 l/m 13,6 km/h (3 Bft) S-SO 152 3 min 548 W/m 13,3 C 13,1 C 22,5 km/h (4 Bft)
24.09.2015 13:33 16,3 C 83 % 1012,7 hPa 0,0 l/m 13,9 km/h (3 Bft) S-SO 156 3 min 387 W/m 13,4 C 13,1 C 22,5 km/h (4 Bft)
24.09.2015 13:36 16,1 C 83 % 1012,6 hPa 0,0 l/m 14,6 km/h (3 Bft) SW 228 3 min 320 W/m 13,2 C 12,6 C 24,1 km/h (4 Bft)
24.09.2015 13:39 16,0 C 84 % 1012,7 hPa 0,0 l/m 14,8 km/h (3 Bft) SW 223 3 min 540 W/m 13,3 C 12,5 C 24,1 km/h (4 Bft)
24.09.2015 13:42 16,0 C 84 % 1012,5 hPa 0,0 l/m 13,0 km/h (3 Bft) S 187 0 min 193 W/m 13,3 C 13,1 C 19,3 km/h (3 Bft)
24.09.2015 13:45 16,1 C 84 % 1012,6 hPa 0,0 l/m 14,5 km/h (3 Bft) SW 216 3 min 557 W/m 13,4 C 12,7 C 25,7 km/h (4 Bft)
24.09.2015 13:48 16,2 C 83 % 1012,5 hPa 0,0 l/m 15,6 km/h (3 Bft) S-SW 202 3 min 315 W/m 13,3 C 12,5 C 25,7 km/h (4 Bft)
24.09.2015 13:51 16,2 C 83 % 1012,5 hPa 0,0 l/m 14,1 km/h (3 Bft) S 170 3 min 548 W/m 13,3 C 12,9 C 25,7 km/h (4 Bft)
24.09.2015 13:54 16,4 C 83 % 1012,4 hPa 0,0 l/m 14,6 km/h (3 Bft) S-SO 150 3 min 610 W/m 13,5 C 13,0 C 22,5 km/h (4 Bft)
24.09.2015 13:57 16,6 C 81 % 1012,5 hPa 0,0 l/m 18,1 km/h (3 Bft) W-SW 241 3 min 364 W/m 13,3 C 12,3 C 33,8 km/h (5 Bft)
24.09.2015 14:00 16,5 C 82 % 1012,4 hPa 0,0 l/m 14,9 km/h (3 Bft) SW 223 3 min 489 W/m 13,4 C 13,0 C 22,5 km/h (4 Bft)
24.09.2015 14:03 16,7 C 81 % 1012,4 hPa 0,0 l/m 14,1 km/h (3 Bft) SW 223 3 min 330 W/m 13,4 C 13,5 C 25,7 km/h (4 Bft)
24.09.2015 14:06 16,7 C 82 % 1012,4 hPa 0,0 l/m 13,8 km/h (3 Bft) S-SW 205 0 min 281 W/m 13,6 C 13,6 C 24,1 km/h (4 Bft)
24.09.2015 14:09 16,6 C 82 % 1012,4 hPa 0,0 l/m 13,2 km/h (3 Bft) S-SO 153 0 min 265 W/m 13,5 C 13,7 C 25,7 km/h (4 Bft)
24.09.2015 14:12 16,4 C 82 % 1012,4 hPa 0,0 l/m 14,4 km/h (3 Bft) S 173 0 min 274 W/m 13,3 C 13,1 C 30,6 km/h (5 Bft)
24.09.2015 14:15 16,5 C 82 % 1012,3 hPa 0,0 l/m 15,1 km/h (3 Bft) S-SW 196 3 min 299 W/m 13,4 C 13,0 C 24,1 km/h (4 Bft)
24.09.2015 14:18 16,6 C 82 % 1012,3 hPa 0,0 l/m 12,7 km/h (3 Bft) SW 233 3 min 322 W/m 13,5 C 13,9 C 25,7 km/h (4 Bft)
24.09.2015 14:21 16,8 C 81 % 1012,3 hPa 0,0 l/m 12,3 km/h (2 Bft) S 174 3 min 427 W/m 13,5 C 14,2 C 20,9 km/h (4 Bft)
24.09.2015 14:24 17,1 C 82 % 1012,2 hPa 0,0 l/m 13,2 km/h (3 Bft) S 184 3 min 647 W/m 14,0 C 14,3 C 24,1 km/h (4 Bft)
24.09.2015 14:27 17,5 C 80 % 1012,2 hPa 0,0 l/m 13,5 km/h (3 Bft) SO 142 3 min 622 W/m 14,0 C 14,7 C 29,0 km/h (5 Bft)
24.09.2015 14:30 17,8 C 80 % 1012,2 hPa 0,0 l/m 11,5 km/h (2 Bft) S-SO 163 3 min 638 W/m 14,3 C 15,7 C 16,1 km/h (3 Bft)
24.09.2015 14:33 18,0 C 78 % 1012,1 hPa 0,0 l/m 12,2 km/h (2 Bft) S 178 3 min 638 W/m 14,1 C 15,7 C 17,7 km/h (3 Bft)
24.09.2015 14:36 17,7 C 77 % 1012,1 hPa 0,0 l/m 14,8 km/h (3 Bft) S-SW 194 3 min 316 W/m 13,6 C 14,5 C 29,0 km/h (5 Bft)
24.09.2015 14:39 17,4 C 78 % 1012,1 hPa 0,0 l/m 15,9 km/h (3 Bft) SW 222 3 min 311 W/m 13,5 C 13,8 C 25,7 km/h (4 Bft)
24.09.2015 14:42 17,3 C 79 % 1012,0 hPa 0,0 l/m 14,8 km/h (3 Bft) S 181 3 min 311 W/m 13,6 C 14,0 C 22,5 km/h (4 Bft)
24.09.2015 14:45 17,6 C 78 % 1012,0 hPa 0,0 l/m 13,7 km/h (3 Bft) S 176 0 min 272 W/m 13,7 C 14,7 C 24,1 km/h (4 Bft)
24.09.2015 14:48 17,4 C 78 % 1012,0 hPa 0,0 l/m 13,1 km/h (3 Bft) S 185 0 min 204 W/m 13,5 C 14,7 C 22,5 km/h (4 Bft)
24.09.2015 14:51 17,1 C 79 % 1012,0 hPa 0,0 l/m 12,7 km/h (3 Bft) S 185 0 min 225 W/m 13,4 C 14,5 C 20,9 km/h (4 Bft)
24.09.2015 14:54 17,1 C 80 % 1011,9 hPa 0,0 l/m 8,7 km/h (2 Bft) SW 217 3 min 295 W/m 13,6 C 16,0 C 14,5 km/h (3 Bft)
24.09.2015 14:57 17,2 C 80 % 1011,9 hPa 0,0 l/m 9,8 km/h (2 Bft) SO 138 0 min 260 W/m 13,7 C 15,6 C 16,1 km/h (3 Bft)
24.09.2015 15:00 17,1 C 80 % 1011,9 hPa 0,0 l/m 13,7 km/h (3 Bft) S-SO 167 3 min 301 W/m 13,6 C 14,1 C 20,9 km/h (4 Bft)
24.09.2015 15:03 17,2 C 80 % 1012,0 hPa 0,0 l/m 12,6 km/h (3 Bft) S-SO 161 0 min 244 W/m 13,7 C 14,6 C 20,9 km/h (4 Bft)
24.09.2015 15:06 17,1 C 80 % 1012,0 hPa 0,0 l/m 13,7 km/h (3 Bft) S 171 0 min 220 W/m 13,6 C 14,1 C 24,1 km/h (4 Bft)
24.09.2015 15:09 17,1 C 80 % 1011,9 hPa 0,0 l/m 11,3 km/h (2 Bft) W-SW 250 0 min 214 W/m 13,6 C 14,9 C 22,5 km/h (4 Bft)
24.09.2015 15:12 17,1 C 80 % 1012,0 hPa 0,0 l/m 11,4 km/h (2 Bft) SW 219 0 min 225 W/m 13,6 C 14,9 C 20,9 km/h (4 Bft)
24.09.2015 15:15 17,0 C 81 % 1012,0 hPa 0,0 l/m 10,9 km/h (2 Bft) S-SW 199 0 min 204 W/m 13,7 C 15,0 C 20,9 km/h (4 Bft)
24.09.2015 15:18 16,9 C 80 % 1012,0 hPa 0,0 l/m 11,6 km/h (2 Bft) S-SO 151 0 min 192 W/m 13,4 C 14,6 C 17,7 km/h (3 Bft)
24.09.2015 15:21 16,9 C 81 % 1012,0 hPa 0,0 l/m 11,1 km/h (2 Bft) SW 232 0 min 209 W/m 13,6 C 14,8 C 20,9 km/h (4 Bft)
24.09.2015 15:24 16,9 C 80 % 1012,0 hPa 0,0 l/m 13,4 km/h (3 Bft) S-SO 150 0 min 165 W/m 13,4 C 14,0 C 29,0 km/h (5 Bft)
24.09.2015 15:27 16,8 C 80 % 1012,0 hPa 0,0 l/m 13,2 km/h (3 Bft) S-SW 192 0 min 167 W/m 13,3 C 13,9 C 22,5 km/h (4 Bft)
24.09.2015 15:30 16,7 C 80 % 1012,1 hPa 0,0 l/m 11,3 km/h (2 Bft) SW 219 0 min 148 W/m 13,2 C 14,5 C 19,3 km/h (3 Bft)
24.09.2015 15:33 16,7 C 81 % 1012,1 hPa 0,0 l/m 11,2 km/h (2 Bft) SO 144 0 min 151 W/m 13,4 C 14,5 C 19,3 km/h (3 Bft)
24.09.2015 15:36 16,6 C 81 % 1012,1 hPa 0,0 l/m 10,8 km/h (2 Bft) S-SO 148 0 min 125 W/m 13,3 C 14,6 C 19,3 km/h (3 Bft)
24.09.2015 15:39 16,5 C 81 % 1012,1 hPa 0,0 l/m 11,2 km/h (2 Bft) S 183 0 min 130 W/m 13,2 C 14,3 C 22,5 km/h (4 Bft)
24.09.2015 15:42 16,4 C 81 % 1012,1 hPa 0,0 l/m 12,1 km/h (2 Bft) SO 134 0 min 149 W/m 13,1 C 13,8 C 20,9 km/h (4 Bft)
24.09.2015 15:45 16,4 C 82 % 1012,1 hPa 0,0 l/m 11,7 km/h (2 Bft) S-SO 162 0 min 141 W/m 13,3 C 14,0 C 19,3 km/h (3 Bft)
24.09.2015 15:48 16,4 C 81 % 1012,0 hPa 0,0 l/m 13,2 km/h (3 Bft) S 173 0 min 142 W/m 13,1 C 13,5 C 22,5 km/h (4 Bft)
24.09.2015 15:51 16,4 C 82 % 1012,1 hPa 0,0 l/m 10,9 km/h (2 Bft) S-SW 209 0 min 132 W/m 13,3 C 14,3 C 22,5 km/h (4 Bft)
24.09.2015 15:54 16,4 C 82 % 1012,1 hPa 0,0 l/m 8,9 km/h (2 Bft) S-SW 197 0 min 121 W/m 13,3 C 15,1 C 14,5 km/h (3 Bft)
24.09.2015 15:57 16,4 C 83 % 1012,1 hPa 0,0 l/m 9,7 km/h (2 Bft) W 263 0 min 86 W/m 13,5 C 14,8 C 29,0 km/h (5 Bft)
24.09.2015 16:00 16,4 C 82 % 1012,1 hPa 0,0 l/m 12,0 km/h (2 Bft) S-SO 163 0 min 91 W/m 13,3 C 13,9 C 19,3 km/h (3 Bft)
24.09.2015 16:03 16,3 C 82 % 1012,1 hPa 0,0 l/m 11,7 km/h (2 Bft) S 175 0 min 98 W/m 13,2 C 13,9 C 19,3 km/h (3 Bft)
24.09.2015 16:06 16,3 C 82 % 1012,1 hPa 0,0 l/m 12,4 km/h (2 Bft) S 172 0 min 109 W/m 13,2 C 13,6 C 22,5 km/h (4 Bft)
24.09.2015 16:09 16,3 C 82 % 1012,1 hPa 0,0 l/m 11,1 km/h (2 Bft) S 182 0 min 100 W/m 13,2 C 14,1 C 19,3 km/h (3 Bft)
24.09.2015 16:12 16,3 C 82 % 1012,2 hPa 0,0 l/m 13,9 km/h (3 Bft) S 173 0 min 84 W/m 13,2 C 13,1 C 22,5 km/h (4 Bft)
24.09.2015 16:15 16,3 C 82 % 1012,2 hPa 0,0 l/m 12,4 km/h (2 Bft) S-SO 167 0 min 70 W/m 13,2 C 13,6 C 20,9 km/h (4 Bft)
24.09.2015 16:18 16,2 C 82 % 1012,2 hPa 0,0 l/m 11,0 km/h (2 Bft) S-SW 195 0 min 67 W/m 13,1 C 14,0 C 19,3 km/h (3 Bft)
24.09.2015 16:21 16,2 C 83 % 1012,1 hPa 0,0 l/m 11,6 km/h (2 Bft) S-SW 213 0 min 77 W/m 13,3 C 13,8 C 19,3 km/h (3 Bft)
24.09.2015 16:24 16,1 C 82 % 1012,1 hPa 0,0 l/m 15,1 km/h (3 Bft) S-SO 165 0 min 72 W/m 13,0 C 12,5 C 20,9 km/h (4 Bft)
24.09.2015 16:27 16,1 C 83 % 1012,2 hPa 0,0 l/m 8,8 km/h (2 Bft) S-SO 157 0 min 49 W/m 13,2 C 14,9 C 19,3 km/h (3 Bft)
24.09.2015 16:30 16,1 C 83 % 1012,1 hPa 0,0 l/m 12,9 km/h (3 Bft) S 189 0 min 46 W/m 13,2 C 13,2 C 20,9 km/h (4 Bft)
24.09.2015 16:33 16,0 C 83 % 1012,1 hPa 0,0 l/m 11,5 km/h (2 Bft) SO 142 0 min 39 W/m 13,1 C 13,6 C 20,9 km/h (4 Bft)
24.09.2015 16:36 15,9 C 84 % 1012,2 hPa 0,0 l/m 8,0 km/h (2 Bft) S 169 0 min 44 W/m 13,2 C 15,0 C 16,1 km/h (3 Bft)
24.09.2015 16:39 15,8 C 86 % 1012,2 hPa 0,0 l/m 7,7 km/h (2 Bft) S-SO 168 0 min 62 W/m 13,5 C 15,1 C 16,1 km/h (3 Bft)
24.09.2015 16:42 15,6 C 88 % 1012,3 hPa 0,0 l/m 7,5 km/h (2 Bft) S-SW 192 0 min 62 W/m 13,6 C 15,0 C 14,5 km/h (3 Bft)
24.09.2015 16:45 15,4 C 88 % 1012,2 hPa 0,2 l/m 10,8 km/h (2 Bft) S-SW 194 0 min 60 W/m 13,4 C 13,2 C 19,3 km/h (3 Bft)
24.09.2015 16:48 15,3 C 89 % 1012,3 hPa 0,0 l/m 13,2 km/h (3 Bft) S-SW 200 0 min 76 W/m 13,5 C 12,2 C 25,7 km/h (4 Bft)
24.09.2015 16:51 15,2 C 90 % 1012,3 hPa 0,2 l/m 10,2 km/h (2 Bft) SW 227 0 min 42 W/m 13,6 C 13,2 C 20,9 km/h (4 Bft)
24.09.2015 16:54 15,0 C 91 % 1012,4 hPa 0,0 l/m 11,1 km/h (2 Bft) S-SO 161 0 min 35 W/m 13,5 C 12,6 C 20,9 km/h (4 Bft)
24.09.2015 16:57 14,9 C 92 % 1012,4 hPa 0,0 l/m 9,5 km/h (2 Bft) S 180 0 min 54 W/m 13,6 C 13,2 C 16,1 km/h (3 Bft)
24.09.2015 17:00 14,8 C 93 % 1012,5 hPa 0,0 l/m 8,9 km/h (2 Bft) SW 214 0 min 53 W/m 13,7 C 13,4 C 16,1 km/h (3 Bft)
24.09.2015 17:03 14,8 C 93 % 1012,4 hPa 0,0 l/m 6,9 km/h (2 Bft) SW 219 0 min 37 W/m 13,7 C 14,5 C 12,9 km/h (3 Bft)
24.09.2015 17:06 14,8 C 93 % 1012,4 hPa 0,0 l/m 9,7 km/h (2 Bft) S-SO 167 0 min 30 W/m 13,7 C 13,0 C 19,3 km/h (3 Bft)
24.09.2015 17:09 14,7 C 93 % 1012,5 hPa 0,0 l/m 7,7 km/h (2 Bft) W-SW 248 0 min 28 W/m 13,6 C 14,0 C 17,7 km/h (3 Bft)
24.09.2015 17:12 14,7 C 93 % 1012,6 hPa 0,2 l/m 9,9 km/h (2 Bft) S-SW 193 0 min 30 W/m 13,6 C 12,8 C 24,1 km/h (4 Bft)
24.09.2015 17:15 14,6 C 94 % 1012,6 hPa 0,0 l/m 10,8 km/h (2 Bft) W-SW 244 0 min 23 W/m 13,6 C 12,3 C 19,3 km/h (3 Bft)
24.09.2015 17:18 14,5 C 94 % 1012,6 hPa 0,2 l/m 10,2 km/h (2 Bft) S-SO 162 0 min 21 W/m 13,5 C 12,5 C 17,7 km/h (3 Bft)
24.09.2015 17:21 14,4 C 94 % 1012,7 hPa 0,0 l/m 11,9 km/h (2 Bft) S-SO 159 0 min 16 W/m 13,4 C 11,6 C 20,9 km/h (4 Bft)
24.09.2015 17:24 14,4 C 94 % 1012,6 hPa 0,0 l/m 11,3 km/h (2 Bft) S 184 0 min 18 W/m 13,4 C 11,9 C 19,3 km/h (3 Bft)
24.09.2015 17:27 14,4 C 95 % 1012,7 hPa 0,2 l/m 10,4 km/h (2 Bft) W-SW 244 0 min 11 W/m 13,6 C 12,3 C 17,7 km/h (3 Bft)
24.09.2015 17:30 14,3 C 95 % 1012,7 hPa 0,2 l/m 9,6 km/h (2 Bft) S 178 0 min 14 W/m 13,5 C 12,5 C 16,1 km/h (3 Bft)
24.09.2015 17:33 14,3 C 95 % 1012,6 hPa 0,0 l/m 9,9 km/h (2 Bft) S-SO 161 0 min 7 W/m 13,5 C 12,4 C 16,1 km/h (3 Bft)
24.09.2015 17:36 14,3 C 95 % 1012,7 hPa 0,0 l/m 10,2 km/h (2 Bft) S 178 0 min 11 W/m 13,5 C 12,3 C 16,1 km/h (3 Bft)
24.09.2015 17:39 14,3 C 95 % 1012,7 hPa 0,0 l/m 9,5 km/h (2 Bft) SW 219 0 min 14 W/m 13,5 C 12,6 C 17,7 km/h (3 Bft)
24.09.2015 17:42 14,3 C 95 % 1012,7 hPa 0,0 l/m 9,3 km/h (2 Bft) S 177 0 min 14 W/m 13,5 C 12,7 C 17,7 km/h (3 Bft)
24.09.2015 17:45 14,3 C 95 % 1012,7 hPa 0,0 l/m 11,6 km/h (2 Bft) SW 232 0 min 14 W/m 13,5 C 11,6 C 19,3 km/h (3 Bft)
24.09.2015 17:48 14,3 C 96 % 1012,7 hPa 0,0 l/m 10,9 km/h (2 Bft) SW 232 0 min 16 W/m 13,7 C 11,9 C 29,0 km/h (5 Bft)
24.09.2015 17:51 14,3 C 96 % 1012,7 hPa 0,0 l/m 10,0 km/h (2 Bft) W-SW 244 0 min 11 W/m 13,7 C 12,3 C 16,1 km/h (3 Bft)
24.09.2015 17:54 14,3 C 96 % 1012,8 hPa 0,0 l/m 9,6 km/h (2 Bft) S-SO 159 0 min 16 W/m 13,7 C 12,5 C 17,7 km/h (3 Bft)
24.09.2015 17:57 14,3 C 96 % 1012,7 hPa 0,0 l/m 9,1 km/h (2 Bft) S-SO 157 0 min 11 W/m 13,7 C 12,8 C 19,3 km/h (3 Bft)
24.09.2015 18:00 14,3 C 96 % 1012,8 hPa 0,0 l/m 10,3 km/h (2 Bft) S-SW 205 0 min 11 W/m 13,7 C 12,2 C 22,5 km/h (4 Bft)
24.09.2015 18:03 14,3 C 96 % 1012,8 hPa 0,0 l/m 9,3 km/h (2 Bft) W-SW 238 0 min 9 W/m 13,7 C 12,7 C 14,5 km/h (3 Bft)
24.09.2015 18:06 14,3 C 96 % 1012,9 hPa 0,0 l/m 9,4 km/h (2 Bft) S-SW 192 0 min 9 W/m 13,7 C 12,6 C 17,7 km/h (3 Bft)
24.09.2015 18:09 14,3 C 96 % 1012,8 hPa 0,0 l/m 11,7 km/h (2 Bft) W-SW 239 0 min 11 W/m 13,7 C 11,6 C 20,9 km/h (4 Bft)
24.09.2015 18:12 14,3 C 96 % 1012,8 hPa 0,0 l/m 11,9 km/h (2 Bft) S-SW 198 0 min 7 W/m 13,7 C 11,5 C 20,9 km/h (4 Bft)
24.09.2015 18:15 14,3 C 96 % 1012,9 hPa 0,0 l/m 9,3 km/h (2 Bft) S-SO 163 0 min 9 W/m 13,7 C 12,7 C 19,3 km/h (3 Bft)
24.09.2015 18:18 14,3 C 96 % 1012,8 hPa 0,0 l/m 10,8 km/h (2 Bft) S 190 0 min 18 W/m 13,7 C 12,0 C 19,3 km/h (3 Bft)
24.09.2015 18:21 14,3 C 96 % 1012,9 hPa 0,0 l/m 11,0 km/h (2 Bft) SW 235 0 min 18 W/m 13,7 C 11,9 C 22,5 km/h (4 Bft)
24.09.2015 18:24 14,3 C 96 % 1012,9 hPa 0,0 l/m 10,5 km/h (2 Bft) S 174 0 min 14 W/m 13,7 C 12,1 C 22,5 km/h (4 Bft)
24.09.2015 18:27 14,3 C 96 % 1012,9 hPa 0,0 l/m 11,7 km/h (2 Bft) S 170 0 min 7 W/m 13,7 C 11,6 C 20,9 km/h (4 Bft)
24.09.2015 18:30 14,3 C 96 % 1012,9 hPa 0,0 l/m 14,7 km/h (3 Bft) S 182 0 min 7 W/m 13,7 C 10,4 C 25,7 km/h (4 Bft)
24.09.2015 18:33 14,3 C 96 % 1012,8 hPa 0,0 l/m 11,4 km/h (2 Bft) S-SW 203 0 min 7 W/m 13,7 C 11,7 C 22,5 km/h (4 Bft)
24.09.2015 18:36 14,3 C 96 % 1012,8 hPa 0,0 l/m 12,5 km/h (2 Bft) SO 138 0 min 0 W/m 13,7 C 11,3 C 24,1 km/h (4 Bft)
24.09.2015 18:39 14,2 C 96 % 1012,9 hPa 0,0 l/m 14,6 km/h (3 Bft) S 180 0 min 0 W/m 13,6 C 10,4 C 19,3 km/h (3 Bft)
24.09.2015 18:42 14,2 C 96 % 1012,9 hPa 0,0 l/m 13,0 km/h (3 Bft) SW 230 0 min 0 W/m 13,6 C 11,0 C 20,9 km/h (4 Bft)
24.09.2015 18:45 14,2 C 96 % 1012,9 hPa 0,0 l/m 12,7 km/h (3 Bft) S-SW 202 0 min 0 W/m 13,6 C 11,1 C 24,1 km/h (4 Bft)
24.09.2015 18:48 14,2 C 96 % 1013,0 hPa 0,0 l/m 12,7 km/h (3 Bft) SW 229 0 min 0 W/m 13,6 C 11,1 C 24,1 km/h (4 Bft)
24.09.2015 18:51 14,2 C 96 % 1013,0 hPa 0,0 l/m 13,0 km/h (3 Bft) S-SW 212 0 min 0 W/m 13,6 C 11,0 C 22,5 km/h (4 Bft)
24.09.2015 18:54 14,2 C 96 % 1013,0 hPa 0,0 l/m 11,8 km/h (2 Bft) SW 218 0 min 0 W/m 13,6 C 11,4 C 22,5 km/h (4 Bft)
24.09.2015 18:57 14,2 C 96 % 1013,1 hPa 0,2 l/m 14,2 km/h (3 Bft) S 183 0 min 0 W/m 13,6 C 10,5 C 25,7 km/h (4 Bft)
24.09.2015 19:00 14,1 C 96 % 1013,1 hPa 0,0 l/m 13,0 km/h (3 Bft) SW 219 0 min 0 W/m 13,5 C 10,8 C 22,5 km/h (4 Bft)
24.09.2015 19:03 14,1 C 96 % 1013,1 hPa 0,0 l/m 17,5 km/h (3 Bft) SW 222 0 min 0 W/m 13,5 C 9,3 C 29,0 km/h (5 Bft)
24.09.2015 19:06 14,1 C 96 % 1013,1 hPa 0,2 l/m 15,0 km/h (3 Bft) SW 231 0 min 0 W/m 13,5 C 10,1 C 24,1 km/h (4 Bft)
24.09.2015 19:09 14,1 C 96 % 1013,2 hPa 0,0 l/m 16,4 km/h (3 Bft) SW 216 0 min 0 W/m 13,5 C 9,6 C 32,2 km/h (5 Bft)
24.09.2015 19:12 14,1 C 96 % 1013,2 hPa 0,0 l/m 14,2 km/h (3 Bft) SW 233 0 min 0 W/m 13,5 C 10,4 C 25,7 km/h (4 Bft)
24.09.2015 19:15 14,1 C 96 % 1013,2 hPa 0,2 l/m 13,7 km/h (3 Bft) SW 214 0 min 0 W/m 13,5 C 10,6 C 22,5 km/h (4 Bft)
24.09.2015 19:18 14,1 C 96 % 1013,2 hPa 0,0 l/m 15,3 km/h (3 Bft) SW 228 0 min 0 W/m 13,5 C 10,0 C 29,0 km/h (5 Bft)
24.09.2015 19:21 14,1 C 96 % 1013,5 hPa 0,2 l/m 19,6 km/h (3 Bft) SW 236 0 min 0 W/m 13,5 C 8,7 C 29,0 km/h (5 Bft)
24.09.2015 19:24 14,0 C 96 % 1013,6 hPa 0,4 l/m 12,9 km/h (3 Bft) W-SW 244 0 min 0 W/m 13,4 C 10,8 C 32,2 km/h (5 Bft)
24.09.2015 19:27 13,8 C 96 % 1013,6 hPa 0,4 l/m 20,6 km/h (4 Bft) SW 234 0 min 0 W/m 13,2 C 8,0 C 32,2 km/h (5 Bft)
24.09.2015 19:30 13,7 C 96 % 1013,6 hPa 0,0 l/m 16,7 km/h (3 Bft) W-SW 242 0 min 0 W/m 13,1 C 9,0 C 29,0 km/h (5 Bft)
24.09.2015 19:33 13,6 C 96 % 1013,6 hPa 0,2 l/m 17,0 km/h (3 Bft) W-SW 252 0 min 0 W/m 13,0 C 8,8 C 25,7 km/h (4 Bft)
24.09.2015 19:36 13,6 C 96 % 1013,7 hPa 0,0 l/m 12,8 km/h (3 Bft) W-SW 241 0 min 0 W/m 13,0 C 10,3 C 22,5 km/h (4 Bft)
24.09.2015 19:39 13,6 C 96 % 1013,8 hPa 0,0 l/m 12,8 km/h (3 Bft) W-SW 244 0 min 0 W/m 13,0 C 10,3 C 22,5 km/h (4 Bft)
24.09.2015 19:42 13,6 C 96 % 1013,7 hPa 0,0 l/m 15,0 km/h (3 Bft) S-SW 206 0 min 0 W/m 13,0 C 9,5 C 25,7 km/h (4 Bft)
24.09.2015 19:45 13,6 C 96 % 1013,8 hPa 0,0 l/m 14,4 km/h (3 Bft) SW 236 0 min 0 W/m 13,0 C 9,7 C 29,0 km/h (5 Bft)
24.09.2015 19:48 13,5 C 96 % 1013,9 hPa 0,0 l/m 14,7 km/h (3 Bft) W-SW 249 0 min 0 W/m 12,9 C 9,5 C 22,5 km/h (4 Bft)
24.09.2015 19:51 13,4 C 96 % 1014,0 hPa 0,0 l/m 13,8 km/h (3 Bft) W-SW 237 0 min 0 W/m 12,8 C 9,7 C 22,5 km/h (4 Bft)
24.09.2015 19:54 13,3 C 96 % 1014,1 hPa 0,0 l/m 15,8 km/h (3 Bft) W 263 0 min 0 W/m 12,7 C 8,9 C 29,0 km/h (5 Bft)
24.09.2015 19:57 13,3 C 96 % 1014,1 hPa 0,0 l/m 14,3 km/h (3 Bft) SW 214 0 min 0 W/m 12,7 C 9,4 C 22,5 km/h (4 Bft)
24.09.2015 20:00 13,3 C 96 % 1014,1 hPa 0,2 l/m 12,7 km/h (3 Bft) W-SW 243 0 min 0 W/m 12,7 C 10,0 C 19,3 km/h (3 Bft)
24.09.2015 20:03 13,3 C 96 % 1014,1 hPa 0,0 l/m 14,9 km/h (3 Bft) S-SW 201 0 min 0 W/m 12,7 C 9,2 C 20,9 km/h (4 Bft)
24.09.2015 20:06 13,3 C 96 % 1014,1 hPa 0,0 l/m 13,0 km/h (3 Bft) W-SW 242 0 min 0 W/m 12,7 C 9,9 C 24,1 km/h (4 Bft)
24.09.2015 20:09 13,3 C 96 % 1014,2 hPa 0,0 l/m 10,2 km/h (2 Bft) SW 228 0 min 0 W/m 12,7 C 11,1 C 17,7 km/h (3 Bft)
24.09.2015 20:12 13,3 C 96 % 1014,2 hPa 0,0 l/m 9,6 km/h (2 Bft) SW 229 0 min 0 W/m 12,7 C 11,4 C 17,7 km/h (3 Bft)
24.09.2015 20:15 13,3 C 96 % 1014,2 hPa 0,0 l/m 12,2 km/h (2 Bft) W-SW 237 0 min 0 W/m 12,7 C 10,2 C 24,1 km/h (4 Bft)
24.09.2015 20:18 13,2 C 96 % 1014,3 hPa 0,0 l/m 14,9 km/h (3 Bft) W-NW 288 0 min 0 W/m 12,6 C 9,0 C 25,7 km/h (4 Bft)
24.09.2015 20:21 13,2 C 96 % 1014,2 hPa 0,0 l/m 8,0 km/h (2 Bft) SW 231 0 min 0 W/m 12,6 C 12,2 C 20,9 km/h (4 Bft)
24.09.2015 20:24 13,2 C 96 % 1014,3 hPa 0,0 l/m 12,6 km/h (3 Bft) SW 229 0 min 0 W/m 12,6 C 9,9 C 24,1 km/h (4 Bft)
24.09.2015 20:27 13,2 C 96 % 1014,3 hPa 0,0 l/m 10,1 km/h (2 Bft) W-SW 255 0 min 0 W/m 12,6 C 11,1 C 22,5 km/h (4 Bft)
24.09.2015 20:30 13,2 C 96 % 1014,4 hPa 0,2 l/m 11,7 km/h (2 Bft) SW 224 0 min 0 W/m 12,6 C 10,3 C 22,5 km/h (4 Bft)
24.09.2015 20:33 13,2 C 96 % 1014,4 hPa 0,0 l/m 7,9 km/h (2 Bft) SW 222 0 min 0 W/m 12,6 C 12,3 C 19,3 km/h (3 Bft)
24.09.2015 20:36 13,2 C 96 % 1014,4 hPa 0,0 l/m 10,2 km/h (2 Bft) S-SW 205 0 min 0 W/m 12,6 C 11,0 C 22,5 km/h (4 Bft)
24.09.2015 20:39 13,2 C 96 % 1014,4 hPa 0,0 l/m 8,9 km/h (2 Bft) SW 232 0 min 0 W/m 12,6 C 11,7 C 16,1 km/h (3 Bft)
24.09.2015 20:42 13,2 C 97 % 1014,5 hPa 0,2 l/m 9,7 km/h (2 Bft) SW 236 0 min 0 W/m 12,7 C 11,3 C 14,5 km/h (3 Bft)
24.09.2015 20:45 13,2 C 97 % 1014,5 hPa 0,0 l/m 12,9 km/h (3 Bft) SW 228 0 min 0 W/m 12,7 C 9,8 C 20,9 km/h (4 Bft)
24.09.2015 20:48 13,2 C 97 % 1014,5 hPa 0,0 l/m 15,5 km/h (3 Bft) SW 229 0 min 0 W/m 12,7 C 8,8 C 24,1 km/h (4 Bft)
24.09.2015 20:51 13,2 C 97 % 1014,5 hPa 0,0 l/m 11,3 km/h (2 Bft) SW 222 0 min 0 W/m 12,7 C 10,5 C 19,3 km/h (3 Bft)
24.09.2015 20:54 13,2 C 97 % 1014,5 hPa 0,2 l/m 13,1 km/h (3 Bft) SW 232 0 min 0 W/m 12,7 C 9,7 C 19,3 km/h (3 Bft)
24.09.2015 20:57 13,2 C 97 % 1014,6 hPa 0,0 l/m 9,9 km/h (2 Bft) W-SW 247 0 min 0 W/m 12,7 C 11,2 C 20,9 km/h (4 Bft)
24.09.2015 21:00 13,2 C 97 % 1014,7 hPa 0,2 l/m 14,7 km/h (3 Bft) SW 221 0 min 0 W/m 12,7 C 9,1 C 25,7 km/h (4 Bft)
24.09.2015 21:03 13,1 C 96 % 1014,8 hPa 0,0 l/m 10,9 km/h (2 Bft) SW 225 0 min 0 W/m 12,5 C 10,6 C 17,7 km/h (3 Bft)
24.09.2015 21:06 12,9 C 96 % 1014,8 hPa 0,0 l/m 11,8 km/h (2 Bft) SW 227 0 min 0 W/m 12,3 C 9,9 C 22,5 km/h (4 Bft)
24.09.2015 21:09 12,8 C 96 % 1014,8 hPa 0,0 l/m 7,5 km/h (2 Bft) W-SW 256 0 min 0 W/m 12,2 C 12,1 C 14,5 km/h (3 Bft)
24.09.2015 21:12 12,9 C 96 % 1014,8 hPa 0,2 l/m 9,4 km/h (2 Bft) S-SW 205 0 min 0 W/m 12,3 C 11,1 C 16,1 km/h (3 Bft)
24.09.2015 21:15 12,9 C 96 % 1014,8 hPa 0,2 l/m 7,0 km/h (2 Bft) SW 220 0 min 0 W/m 12,3 C 12,5 C 17,7 km/h (3 Bft)
24.09.2015 21:18 12,9 C 96 % 1014,8 hPa 0,0 l/m 6,8 km/h (2 Bft) W-NW 290 0 min 0 W/m 12,3 C 12,7 C 14,5 km/h (3 Bft)
24.09.2015 21:21 12,9 C 97 % 1014,8 hPa 0,0 l/m 7,3 km/h (2 Bft) SW 223 0 min 0 W/m 12,4 C 12,3 C 16,1 km/h (3 Bft)
24.09.2015 21:24 12,9 C 97 % 1014,9 hPa 0,2 l/m 9,6 km/h (2 Bft) W-SW 239 0 min 0 W/m 12,4 C 11,0 C 20,9 km/h (4 Bft)
24.09.2015 21:27 12,9 C 97 % 1014,9 hPa 0,0 l/m 11,3 km/h (2 Bft) SW 221 0 min 0 W/m 12,4 C 10,2 C 20,9 km/h (4 Bft)
24.09.2015 21:30 12,9 C 97 % 1014,8 hPa 0,0 l/m 13,7 km/h (3 Bft) S-SW 207 0 min 0 W/m 12,4 C 9,1 C 22,5 km/h (4 Bft)
24.09.2015 21:33 12,9 C 96 % 1014,8 hPa 0,0 l/m 10,0 km/h (2 Bft) W-SW 242 0 min 0 W/m 12,3 C 10,8 C 17,7 km/h (3 Bft)
24.09.2015 21:36 12,9 C 96 % 1014,8 hPa 0,0 l/m 11,9 km/h (2 Bft) SW 214 0 min 0 W/m 12,3 C 9,9 C 19,3 km/h (3 Bft)
24.09.2015 21:39 12,8 C 96 % 1014,9 hPa 0,0 l/m 9,6 km/h (2 Bft) S-SW 210 0 min 0 W/m 12,2 C 10,9 C 14,5 km/h (3 Bft)
24.09.2015 21:42 12,8 C 96 % 1014,9 hPa 0,0 l/m 10,2 km/h (2 Bft) SW 215 0 min 0 W/m 12,2 C 10,6 C 16,1 km/h (3 Bft)
24.09.2015 21:45 12,8 C 96 % 1014,9 hPa 0,0 l/m 11,3 km/h (2 Bft) W-SW 255 0 min 0 W/m 12,2 C 10,1 C 20,9 km/h (4 Bft)
24.09.2015 21:48 12,8 C 96 % 1014,9 hPa 0,0 l/m 11,8 km/h (2 Bft) SW 220 0 min 0 W/m 12,2 C 9,8 C 19,3 km/h (3 Bft)
24.09.2015 21:51 12,8 C 96 % 1014,9 hPa 0,0 l/m 11,5 km/h (2 Bft) SW 227 0 min 0 W/m 12,2 C 10,0 C 19,3 km/h (3 Bft)
24.09.2015 21:54 12,8 C 96 % 1014,9 hPa 0,0 l/m 12,2 km/h (2 Bft) W-SW 256 0 min 0 W/m 12,2 C 9,7 C 16,1 km/h (3 Bft)
24.09.2015 21:57 12,9 C 96 % 1014,8 hPa 0,0 l/m 10,0 km/h (2 Bft) SW 215 0 min 0 W/m 12,3 C 10,8 C 16,1 km/h (3 Bft)
24.09.2015 22:00 12,9 C 96 % 1014,9 hPa 0,0 l/m 11,1 km/h (2 Bft) SW 227 0 min 0 W/m 12,3 C 10,3 C 22,5 km/h (4 Bft)
24.09.2015 22:03 12,9 C 96 % 1014,9 hPa 0,0 l/m 12,9 km/h (3 Bft) W-SW 246 0 min 0 W/m 12,3 C 9,5 C 19,3 km/h (3 Bft)
24.09.2015 22:06 12,8 C 95 % 1014,9 hPa 0,0 l/m 8,5 km/h (2 Bft) SW 235 0 min 0 W/m 12,0 C 11,5 C 12,9 km/h (3 Bft)
24.09.2015 22:09 12,8 C 95 % 1014,8 hPa 0,0 l/m 8,3 km/h (2 Bft) SW 230 0 min 0 W/m 12,0 C 11,6 C 12,9 km/h (3 Bft)
24.09.2015 22:12 12,8 C 95 % 1014,8 hPa 0,0 l/m 9,8 km/h (2 Bft) SW 221 0 min 0 W/m 12,0 C 10,8 C 14,5 km/h (3 Bft)
24.09.2015 22:15 12,8 C 95 % 1014,9 hPa 0,0 l/m 10,5 km/h (2 Bft) SW 223 0 min 0 W/m 12,0 C 10,4 C 16,1 km/h (3 Bft)
24.09.2015 22:18 12,8 C 95 % 1014,9 hPa 0,0 l/m 11,0 km/h (2 Bft) SW 225 0 min 0 W/m 12,0 C 10,2 C 14,5 km/h (3 Bft)
24.09.2015 22:21 12,8 C 95 % 1014,9 hPa 0,0 l/m 9,8 km/h (2 Bft) SW 223 0 min 0 W/m 12,0 C 10,8 C 14,5 km/h (3 Bft)
24.09.2015 22:24 12,8 C 95 % 1015,0 hPa 0,0 l/m 9,5 km/h (2 Bft) S-SW 196 0 min 0 W/m 12,0 C 10,9 C 14,5 km/h (3 Bft)
24.09.2015 22:27 12,8 C 95 % 1015,1 hPa 0,2 l/m 10,2 km/h (2 Bft) S-SW 209 0 min 0 W/m 12,0 C 10,6 C 19,3 km/h (3 Bft)
24.09.2015 22:30 12,7 C 95 % 1015,2 hPa 0,0 l/m 9,9 km/h (2 Bft) W-SW 240 0 min 0 W/m 11,9 C 10,6 C 17,7 km/h (3 Bft)
24.09.2015 22:33 12,7 C 95 % 1015,3 hPa 0,0 l/m 11,0 km/h (2 Bft) S-SW 208 0 min 0 W/m 11,9 C 10,1 C 19,3 km/h (3 Bft)
24.09.2015 22:36 12,7 C 95 % 1015,2 hPa 0,0 l/m 10,4 km/h (2 Bft) S-SW 213 0 min 0 W/m 11,9 C 10,4 C 20,9 km/h (4 Bft)
24.09.2015 22:39 12,7 C 95 % 1015,3 hPa 0,0 l/m 9,9 km/h (2 Bft) SW 236 0 min 0 W/m 11,9 C 10,6 C 16,1 km/h (3 Bft)
24.09.2015 22:42 12,6 C 94 % 1015,3 hPa 0,0 l/m 11,5 km/h (2 Bft) W-SW 239 0 min 0 W/m 11,7 C 9,7 C 17,7 km/h (3 Bft)
24.09.2015 22:45 12,6 C 94 % 1015,4 hPa 0,0 l/m 12,0 km/h (2 Bft) SW 225 0 min 0 W/m 11,7 C 9,5 C 19,3 km/h (3 Bft)
24.09.2015 22:48 12,6 C 94 % 1015,3 hPa 0,0 l/m 11,3 km/h (2 Bft) S 183 0 min 0 W/m 11,7 C 9,8 C 19,3 km/h (3 Bft)
24.09.2015 22:51 12,5 C 94 % 1015,3 hPa 0,0 l/m 10,0 km/h (2 Bft) W-SW 246 0 min 0 W/m 11,6 C 10,4 C 14,5 km/h (3 Bft)
24.09.2015 22:54 12,5 C 94 % 1015,3 hPa 0,0 l/m 11,7 km/h (2 Bft) SW 232 0 min 0 W/m 11,6 C 9,5 C 19,3 km/h (3 Bft)
24.09.2015 22:57 12,5 C 94 % 1015,3 hPa 0,0 l/m 9,5 km/h (2 Bft) SW 225 0 min 0 W/m 11,6 C 10,6 C 17,7 km/h (3 Bft)
24.09.2015 23:00 12,4 C 93 % 1015,4 hPa 0,0 l/m 9,6 km/h (2 Bft) S-SW 197 0 min 0 W/m 11,3 C 10,5 C 16,1 km/h (3 Bft)
24.09.2015 23:03 12,4 C 93 % 1015,3 hPa 0,0 l/m 7,5 km/h (2 Bft) S-SW 212 0 min 0 W/m 11,3 C 11,7 C 12,9 km/h (3 Bft)
24.09.2015 23:06 12,4 C 93 % 1015,2 hPa 0,0 l/m 8,4 km/h (2 Bft) SW 214 0 min 0 W/m 11,3 C 11,1 C 14,5 km/h (3 Bft)
24.09.2015 23:09 12,3 C 93 % 1015,3 hPa 0,0 l/m 7,3 km/h (2 Bft) S-SW 207 0 min 0 W/m 11,2 C 11,7 C 11,3 km/h (2 Bft)
24.09.2015 23:12 12,3 C 94 % 1015,3 hPa 0,0 l/m 8,4 km/h (2 Bft) S-SW 204 0 min 0 W/m 11,4 C 11,0 C 14,5 km/h (3 Bft)
24.09.2015 23:15 12,3 C 94 % 1015,4 hPa 0,0 l/m 8,2 km/h (2 Bft) W-SW 243 0 min 0 W/m 11,4 C 11,1 C 12,9 km/h (3 Bft)
24.09.2015 23:18 12,3 C 94 % 1015,3 hPa 0,0 l/m 8,1 km/h (2 Bft) S-SW 200 0 min 0 W/m 11,4 C 11,2 C 11,3 km/h (2 Bft)
24.09.2015 23:21 12,2 C 94 % 1015,3 hPa 0,0 l/m 5,8 km/h (2 Bft) S-SW 208 0 min 0 W/m 11,3 C 12,2 C 9,7 km/h (2 Bft)
24.09.2015 23:24 12,2 C 94 % 1015,3 hPa 0,0 l/m 7,0 km/h (2 Bft) SW 230 0 min 0 W/m 11,3 C 11,8 C 12,9 km/h (3 Bft)
24.09.2015 23:27 12,2 C 94 % 1015,4 hPa 0,0 l/m 7,4 km/h (2 Bft) S-SW 207 0 min 0 W/m 11,3 C 11,5 C 12,9 km/h (3 Bft)
24.09.2015 23:30 12,1 C 94 % 1015,4 hPa 0,0 l/m 7,4 km/h (2 Bft) S-SW 203 0 min 0 W/m 11,2 C 11,4 C 12,9 km/h (3 Bft)
24.09.2015 23:33 12,0 C 94 % 1015,4 hPa 0,0 l/m 7,2 km/h (2 Bft) S-SW 213 0 min 0 W/m 11,1 C 11,5 C 11,3 km/h (2 Bft)
24.09.2015 23:36 11,9 C 94 % 1015,5 hPa 0,0 l/m 6,8 km/h (2 Bft) SW 223 0 min 0 W/m 11,0 C 11,6 C 11,3 km/h (2 Bft)
24.09.2015 23:39 11,9 C 95 % 1015,5 hPa 0,0 l/m 5,9 km/h (2 Bft) SW 221 0 min 0 W/m 11,1 C 11,9 C 11,3 km/h (2 Bft)
24.09.2015 23:42 11,8 C 95 % 1015,6 hPa 0,0 l/m 6,0 km/h (2 Bft) SW 217 0 min 0 W/m 11,0 C 11,8 C 9,7 km/h (2 Bft)
24.09.2015 23:45 11,8 C 95 % 1015,5 hPa 0,0 l/m 6,0 km/h (2 Bft) SW 229 0 min 0 W/m 11,0 C 11,8 C 9,7 km/h (2 Bft)
24.09.2015 23:48 11,8 C 95 % 1015,6 hPa 0,0 l/m 7,3 km/h (2 Bft) SW 230 0 min 0 W/m 11,0 C 11,2 C 11,3 km/h (2 Bft)
24.09.2015 23:51 11,8 C 95 % 1015,6 hPa 0,0 l/m 8,9 km/h (2 Bft) SW 225 0 min 0 W/m 11,0 C 10,2 C 14,5 km/h (3 Bft)
24.09.2015 23:54 11,8 C 95 % 1015,6 hPa 0,0 l/m 8,7 km/h (2 Bft) S 176 0 min 0 W/m 11,0 C 10,3 C 12,9 km/h (3 Bft)
24.09.2015 23:57 11,8 C 95 % 1015,6 hPa 0,0 l/m 8,8 km/h (2 Bft) SW 221 0 min 0 W/m 11,0 C 10,3 C 12,9 km/h (3 Bft)
_ Min-Zeit 02:57 14:36 00:00 - 00:03 - - - - 02:57 19:27 00:03
Minimum _ 10,2 C 77 % 1010,9 hPa - 0,0 km/h (0 Bft) - - - - 9,9 C 8,0 C 0,0 km/h (0 Bft)
_ Max-Zeit 14:33 04:15 23:42 19:24 19:27 - - 07:36 14:24 14:30 14:54 13:57
Maximum _ 18,0 C 99 % 1015,6 hPa 0,4 l/m 20,6 km/h
SW (4 Bft)
- - 3 min 647 W/m 14,3 C 16,0 C 33,8 km/h
S-SO (5 Bft)
Durchschnitt _ 13,0 C 94 % 1012,6 hPa #4,8 l/m 8,9 km/h (2 Bft) S - #1:51 h 157 W/m 12,0 C 11,4 C 16,3 km/h (3 Bft)
copyright by Holger Just